EDW41 SAEZ-LSZH

Flight info

Callsign EDW41
Flight time 12h 46m
Altitude 35000
Route KUKE1A KUKEN UM654 OBKAR/N0494F370 UM654 TEPAV UZ78 USVUR UN866 BUXON/N0487F390 UN866 TENPA N866 APASO/N0476F400 N871 GDV N858 VASTO UN858 AKUDA/N0426F240 UN858 PESAS/N0478F400 N858 OXACA M30 HIJ N10 VTB N871 TOPTU DCT NARAK DCT NINUN UN871 OMASI N871 BERSU BERSU2G
Aircraft A359/H-SDE2E3GHIJ3J4J5LM1ORWXY/LB1D1

Departure

Time 2026-04-30 06:04
Airport Ezeiza International Airport - Ministro Pistarini (SAEZ)

Arrival

Time 2026-04-30 18:50
Airport Zürich Airport (LSZH)
Time Latitude Longitude Altitude Speed Heading
2026-04-30 05:27 -34.81662 -58.54037 81 ft 0 kts 316°
2026-04-30 05:53 -34.81667 -58.54031 86 ft 4 kts 316°
2026-04-30 05:53 -34.81686 -58.54007 81 ft 4 kts 315°
2026-04-30 05:53 -34.81704 -58.53984 85 ft 4 kts 309°
2026-04-30 05:53 -34.81720 -58.53957 85 ft 4 kts 295°
2026-04-30 05:54 -34.81728 -58.53927 87 ft 4 kts 275°
2026-04-30 05:54 -34.81726 -58.53898 86 ft 2 kts 240°
2026-04-30 05:54 -34.81725 -58.53897 86 ft 0 kts 240°
2026-04-30 05:56 -34.81726 -58.53898 86 ft 3 kts 240°
2026-04-30 05:56 -34.81765 -58.53983 86 ft 14 kts 239°
2026-04-30 05:57 -34.81794 -58.54087 86 ft 12 kts 264°
2026-04-30 05:57 -34.81782 -58.54180 84 ft 11 kts 279°
2026-04-30 05:57 -34.81774 -58.54276 81 ft 11 kts 272°
2026-04-30 05:57 -34.81767 -58.54370 86 ft 11 kts 281°
2026-04-30 05:58 -34.81748 -58.54508 84 ft 20 kts 276°
2026-04-30 05:58 -34.81772 -58.54659 83 ft 18 kts 260°
2026-04-30 05:58 -34.81771 -58.54800 82 ft 16 kts 278°
2026-04-30 05:58 -34.81749 -58.54931 86 ft 16 kts 285°
2026-04-30 05:59 -34.81726 -58.55059 84 ft 15 kts 281°
2026-04-30 05:59 -34.81704 -58.55181 86 ft 13 kts 285°
2026-04-30 05:59 -34.81696 -58.55260 85 ft 8 kts 263°
2026-04-30 05:59 -34.81714 -58.55314 87 ft 6 kts 229°
2026-04-30 06:00 -34.81741 -58.55333 82 ft 0 kts 200°
2026-04-30 06:02 -34.81764 -58.55339 85 ft 18 kts 189°
2026-04-30 06:02 -34.81861 -58.55312 88 ft 13 kts 163°
2026-04-30 06:02 -34.81921 -58.55258 88 ft 0 kts 104°
2026-04-30 06:03 -34.81952 -58.55075 89 ft 53 kts 102°
2026-04-30 06:03 -34.82075 -58.54391 92 ft 110 kts 103°
2026-04-30 06:03 -34.82275 -58.53271 91 ft 159 kts 102°
2026-04-30 06:04 -34.82508 -58.51956 247 ft 187 kts 102°
2026-04-30 06:04 -34.82807 -58.50374 824 ft 193 kts 103°
2026-04-30 06:04 -34.83040 -58.48795 1433 ft 187 kts 94°
2026-04-30 06:05 -34.82312 -58.46013 2388 ft 177 kts 35°
2026-04-30 06:05 -34.81160 -58.45417 2534 ft 186 kts
2026-04-30 06:05 -34.79855 -58.45106 2766 ft 198 kts 10°
2026-04-30 06:05 -34.78469 -58.44778 3056 ft 207 kts
2026-04-30 06:06 -34.77021 -58.44346 3292 ft 222 kts 14°
2026-04-30 06:06 -34.75489 -58.43782 3529 ft 238 kts 15°
2026-04-30 06:06 -34.73855 -58.43155 3758 ft 254 kts 15°
2026-04-30 06:06 -34.72135 -58.42488 4118 ft 264 kts 15°
2026-04-30 06:07 -34.70370 -58.41801 4644 ft 268 kts 15°
2026-04-30 06:07 -34.68583 -58.41107 5172 ft 272 kts 14°
2026-04-30 06:07 -34.66761 -58.40400 5667 ft 278 kts 14°
2026-04-30 06:07 -34.64901 -58.39679 6184 ft 282 kts 14°
2026-04-30 06:08 -34.63010 -58.38947 6706 ft 288 kts 14°
2026-04-30 06:08 -34.61104 -58.38208 7243 ft 291 kts 14°
2026-04-30 06:08 -34.59163 -58.37457 7830 ft 293 kts 14°
2026-04-30 06:08 -34.57202 -58.36698 8426 ft 296 kts 14°
2026-04-30 06:09 -34.55228 -58.35935 9034 ft 299 kts 14°
2026-04-30 06:09 -34.53231 -58.35164 9605 ft 302 kts 13°
2026-04-30 06:09 -34.51221 -58.34388 10161 ft 306 kts 13°
2026-04-30 06:09 -34.49180 -58.33601 10631 ft 312 kts 13°
2026-04-30 06:10 -34.47087 -58.32798 10894 ft 326 kts 13°
2026-04-30 06:10 -34.44872 -58.31947 11139 ft 341 kts 13°
2026-04-30 06:10 -34.42568 -58.31062 11404 ft 354 kts 13°
2026-04-30 06:10 -34.40177 -58.30141 11650 ft 367 kts 13°
2026-04-30 06:11 -34.37695 -58.29185 11909 ft 380 kts 13°
2026-04-30 06:11 -34.35142 -58.28203 12174 ft 391 kts 13°
2026-04-30 06:11 -34.32521 -58.27193 12569 ft 398 kts 13°
2026-04-30 06:11 -34.29866 -58.26171 13040 ft 402 kts 13°
2026-04-30 06:12 -34.27188 -58.25140 13499 ft 406 kts 13°
2026-04-30 06:12 -34.24480 -58.24101 13961 ft 410 kts 13°
2026-04-30 06:12 -34.21751 -58.23054 14363 ft 414 kts 13°
2026-04-30 06:12 -34.19014 -58.21894 14748 ft 421 kts 19°
2026-04-30 06:13 -34.16411 -58.20196 15158 ft 429 kts 28°
2026-04-30 06:13 -34.13909 -58.18183 15565 ft 435 kts 31°
2026-04-30 06:13 -34.11457 -58.16016 15980 ft 439 kts 33°
2026-04-30 06:13 -34.09010 -58.13781 16394 ft 443 kts 33°
2026-04-30 06:14 -34.06537 -58.11518 16795 ft 447 kts 33°
2026-04-30 06:14 -34.04070 -58.09287 17191 ft 451 kts 32°
2026-04-30 06:14 -34.01542 -58.07030 17601 ft 454 kts 32°
2026-04-30 06:14 -33.98986 -58.04773 17991 ft 458 kts 32°
2026-04-30 06:15 -33.96386 -58.02495 18382 ft 462 kts 31°
2026-04-30 06:15 -33.93781 -58.00220 18730 ft 465 kts 31°
2026-04-30 06:15 -33.91150 -57.97924 19114 ft 467 kts 31°
2026-04-30 06:15 -33.88517 -57.95627 19483 ft 469 kts 31°
2026-04-30 06:16 -33.85866 -57.93317 19842 ft 472 kts 31°
2026-04-30 06:16 -33.83190 -57.90987 20173 ft 476 kts 31°
2026-04-30 06:16 -33.80517 -57.88660 20532 ft 479 kts 31°
2026-04-30 06:16 -33.77798 -57.86294 20901 ft 481 kts 31°
2026-04-30 06:17 -33.75079 -57.83929 21278 ft 484 kts 31°
2026-04-30 06:17 -33.72347 -57.81555 21619 ft 486 kts 31°
2026-04-30 06:17 -33.69594 -57.79165 21970 ft 489 kts 31°
2026-04-30 06:17 -33.66825 -57.76762 22334 ft 492 kts 31°
2026-04-30 06:18 -33.64044 -57.74352 22678 ft 495 kts 31°
2026-04-30 06:18 -33.61238 -57.71927 23021 ft 497 kts 31°
2026-04-30 06:18 -33.58422 -57.69491 23405 ft 500 kts 31°
2026-04-30 06:18 -33.55633 -57.67079 23724 ft 503 kts 31°
2026-04-30 06:19 -33.52789 -57.64619 24011 ft 505 kts 31°
2026-04-30 06:19 -33.49929 -57.62147 24301 ft 508 kts 31°
2026-04-30 06:19 -33.47054 -57.59666 24625 ft 510 kts 31°
2026-04-30 06:19 -33.44165 -57.57175 24949 ft 513 kts 31°
2026-04-30 06:20 -33.41261 -57.54674 25247 ft 515 kts 31°
2026-04-30 06:20 -33.38350 -57.52168 25569 ft 518 kts 31°
2026-04-30 06:20 -33.35416 -57.49646 25890 ft 520 kts 31°
2026-04-30 06:20 -33.32470 -57.47115 26191 ft 522 kts 31°
2026-04-30 06:21 -33.29518 -57.44580 26540 ft 524 kts 31°
2026-04-30 06:21 -33.26547 -57.42032 26846 ft 526 kts 31°
2026-04-30 06:21 -33.23567 -57.39478 27147 ft 529 kts 31°
2026-04-30 06:21 -33.20572 -57.36915 27422 ft 531 kts 31°
2026-04-30 06:22 -33.17555 -57.34336 27687 ft 534 kts 31°
2026-04-30 06:22 -33.14525 -57.31747 28010 ft 536 kts 31°
2026-04-30 06:22 -33.11487 -57.29152 28300 ft 539 kts 31°
2026-04-30 06:22 -33.08436 -57.26548 28585 ft 541 kts 31°
2026-04-30 06:23 -33.05365 -57.23931 28860 ft 543 kts 31°
2026-04-30 06:23 -33.02281 -57.21304 29106 ft 545 kts 31°
2026-04-30 06:23 -32.99196 -57.18679 29426 ft 546 kts 31°
2026-04-30 06:23 -32.97148 -57.16937 29609 ft 548 kts 31°
2026-04-30 06:24 -32.94041 -57.14297 29857 ft 550 kts 31°
2026-04-30 06:24 -32.90922 -57.11649 30101 ft 552 kts 31°
2026-04-30 06:24 -32.87787 -57.08990 30296 ft 554 kts 31°
2026-04-30 06:24 -32.84633 -57.06317 30498 ft 556 kts 31°
2026-04-30 06:25 -32.81480 -57.03648 30727 ft 557 kts 31°
2026-04-30 06:25 -32.78323 -57.00976 30939 ft 558 kts 31°
2026-04-30 06:25 -32.75150 -56.98294 31149 ft 559 kts 31°
2026-04-30 06:25 -32.71983 -56.95619 31430 ft 558 kts 31°
2026-04-30 06:26 -32.68825 -56.92952 31806 ft 555 kts 31°
2026-04-30 06:26 -32.65728 -56.90339 32087 ft 554 kts 30°
2026-04-30 06:26 -32.62544 -56.87658 32338 ft 554 kts 30°
2026-04-30 06:26 -32.59410 -56.85021 32741 ft 550 kts 30°
2026-04-30 06:27 -32.56345 -56.82442 33068 ft 547 kts 30°
2026-04-30 06:27 -32.53236 -56.79831 33336 ft 546 kts 30°
2026-04-30 06:27 -32.50136 -56.77237 33598 ft 545 kts 30°
2026-04-30 06:27 -32.47039 -56.74642 33842 ft 544 kts 30°
2026-04-30 06:28 -32.43949 -56.72055 34054 ft 544 kts 30°
2026-04-30 06:28 -32.40859 -56.69468 34266 ft 542 kts 30°
2026-04-30 06:28 -32.37786 -56.66897 34633 ft 536 kts 30°
2026-04-30 06:28 -32.34755 -56.64360 34963 ft 532 kts 29°
2026-04-30 06:29 -32.31739 -56.61840 35045 ft 528 kts 29°
2026-04-30 06:29 -32.25750 -56.56851 35062 ft 526 kts 29°
2026-04-30 06:30 -32.19771 -56.51882 35067 ft 526 kts 29°
2026-04-30 06:30 -32.13777 -56.46905 35067 ft 526 kts 29°
2026-04-30 06:31 -32.07798 -56.41941 35066 ft 525 kts 29°
2026-04-30 06:31 -32.01836 -56.37001 35069 ft 523 kts 29°
2026-04-30 06:32 -31.95898 -56.32091 35068 ft 523 kts 29°
2026-04-30 06:32 -31.89967 -56.27193 35070 ft 523 kts 29°
2026-04-30 06:33 -31.83994 -56.22271 35078 ft 522 kts 29°
2026-04-30 06:33 -31.78035 -56.17365 35071 ft 521 kts 29°
2026-04-30 06:34 -31.72138 -56.12519 35070 ft 520 kts 29°
2026-04-30 06:34 -31.66191 -56.07640 35072 ft 520 kts 29°
2026-04-30 06:35 -31.60274 -56.02794 35078 ft 520 kts 28°
2026-04-30 06:35 -31.54355 -55.97956 35077 ft 520 kts 28°
2026-04-30 06:36 -31.48432 -55.93119 35074 ft 520 kts 28°
2026-04-30 06:36 -31.42477 -55.88257 35081 ft 520 kts 28°
2026-04-30 06:37 -31.36558 -55.83436 35080 ft 519 kts 28°
2026-04-30 06:37 -31.30639 -55.78623 35080 ft 519 kts 28°
2026-04-30 06:38 -31.24710 -55.73811 35081 ft 520 kts 28°
2026-04-30 06:38 -31.18739 -55.68972 35085 ft 520 kts 28°
2026-04-30 06:39 -31.12823 -55.64183 35064 ft 518 kts 28°
2026-04-30 06:39 -31.06876 -55.59379 35077 ft 518 kts 28°
2026-04-30 06:40 -31.00972 -55.54615 35078 ft 518 kts 28°
2026-04-30 06:40 -30.95059 -55.49852 35079 ft 519 kts 28°
2026-04-30 06:41 -30.89097 -55.45059 35064 ft 519 kts 29°
2026-04-30 06:41 -30.83178 -55.40287 35080 ft 517 kts 29°
2026-04-30 06:42 -30.77278 -55.35539 35080 ft 516 kts 28°
2026-04-30 06:42 -30.71369 -55.30794 35078 ft 516 kts 28°
2026-04-30 06:43 -30.65464 -55.26063 35076 ft 516 kts 28°
2026-04-30 06:43 -30.59577 -55.21353 35056 ft 517 kts 28°
2026-04-30 06:44 -30.53679 -55.16640 35078 ft 515 kts 28°
2026-04-30 06:44 -30.47805 -55.11910 35078 ft 514 kts 29°
2026-04-30 06:45 -30.41915 -55.07141 35076 ft 514 kts 29°
2026-04-30 06:45 -30.36047 -55.02404 35073 ft 514 kts 29°
2026-04-30 06:46 -30.30170 -54.97675 35074 ft 514 kts 29°
2026-04-30 06:46 -30.24301 -54.92962 35074 ft 513 kts 29°
2026-04-30 06:47 -30.18470 -54.88286 35073 ft 512 kts 28°
2026-04-30 06:47 -30.12594 -54.83581 35074 ft 511 kts 28°
2026-04-30 06:48 -30.06758 -54.78916 35073 ft 511 kts 28°
2026-04-30 06:48 -30.00921 -54.74257 35072 ft 511 kts 28°
2026-04-30 06:49 -29.95079 -54.69598 35071 ft 511 kts 28°
2026-04-30 06:49 -29.89215 -54.64929 35076 ft 510 kts 28°
2026-04-30 06:50 -29.83392 -54.60301 35075 ft 510 kts 28°
2026-04-30 06:50 -29.77572 -54.55682 35075 ft 510 kts 28°
2026-04-30 06:51 -29.71694 -54.51023 35077 ft 510 kts 28°
2026-04-30 06:51 -29.65868 -54.46411 35058 ft 510 kts 28°
2026-04-30 06:52 -29.60056 -54.41817 35082 ft 509 kts 28°
2026-04-30 06:52 -29.54200 -54.37196 35095 ft 508 kts 28°
2026-04-30 06:53 -29.48400 -54.32625 35092 ft 508 kts 28°
2026-04-30 06:53 -29.42541 -54.28016 35080 ft 508 kts 28°
2026-04-30 06:54 -29.36728 -54.23444 35094 ft 508 kts 28°
2026-04-30 06:54 -29.30908 -54.18877 35091 ft 507 kts 28°
2026-04-30 06:55 -29.25059 -54.14294 35093 ft 507 kts 28°
2026-04-30 06:55 -29.19264 -54.09760 35094 ft 507 kts 28°
2026-04-30 06:56 -29.13435 -54.05206 35092 ft 507 kts 28°
2026-04-30 06:56 -29.07623 -54.00670 35092 ft 507 kts 28°
2026-04-30 06:57 -29.01815 -53.96144 35086 ft 506 kts 28°
2026-04-30 06:57 -28.95981 -53.91603 35089 ft 505 kts 28°
2026-04-30 06:58 -28.90195 -53.87106 35088 ft 505 kts 28°
2026-04-30 06:58 -28.84367 -53.82583 35085 ft 505 kts 28°
2026-04-30 06:59 -28.78566 -53.78088 35083 ft 505 kts 28°
2026-04-30 06:59 -28.72793 -53.73620 35067 ft 504 kts 28°
2026-04-30 07:00 -28.66997 -53.69139 35089 ft 503 kts 28°
2026-04-30 07:00 -28.61199 -53.64666 35089 ft 503 kts 28°
2026-04-30 07:01 -28.55400 -53.60196 35094 ft 503 kts 28°
2026-04-30 07:01 -28.49604 -53.55735 35085 ft 503 kts 28°
2026-04-30 07:02 -28.43813 -53.51284 35085 ft 503 kts 28°
2026-04-30 07:02 -28.38027 -53.46841 35091 ft 503 kts 27°
2026-04-30 07:03 -28.32233 -53.42400 35086 ft 503 kts 27°
2026-04-30 07:03 -28.26436 -53.37960 35091 ft 503 kts 27°
2026-04-30 07:04 -28.20634 -53.33524 35082 ft 503 kts 27°
2026-04-30 07:04 -28.14842 -53.29102 35084 ft 503 kts 27°
2026-04-30 07:05 -28.06129 -53.22460 35086 ft 502 kts 27°
2026-04-30 07:05 -28.00314 -53.18034 35086 ft 502 kts 27°
2026-04-30 07:06 -27.94541 -53.13646 35084 ft 502 kts 27°
2026-04-30 07:06 -27.88755 -53.09255 35087 ft 501 kts 27°
2026-04-30 07:07 -27.82972 -53.04870 35088 ft 501 kts 27°
2026-04-30 07:07 -27.77154 -53.00467 35071 ft 501 kts 27°
2026-04-30 07:08 -27.71398 -52.96114 35077 ft 500 kts 27°
2026-04-30 07:08 -27.65587 -52.91752 35081 ft 500 kts 26°
2026-04-30 07:09 -27.59780 -52.87484 35079 ft 499 kts 26°
2026-04-30 07:09 -27.53954 -52.83254 35076 ft 496 kts 23°
2026-04-30 07:10 -27.47719 -52.80132 35067 ft 486 kts 14°
2026-04-30 07:10 -27.41402 -52.77514 35073 ft 484 kts 12°
2026-04-30 07:11 -27.35064 -52.74974 35072 ft 484 kts 12°
2026-04-30 07:11 -27.28726 -52.72422 35071 ft 483 kts 12°
2026-04-30 07:12 -27.22430 -52.69874 35072 ft 484 kts 12°
2026-04-30 07:12 -27.16107 -52.67280 35064 ft 485 kts 15°
2026-04-30 07:13 -27.10190 -52.63477 35072 ft 497 kts 28°
2026-04-30 07:13 -27.04551 -52.58886 35072 ft 500 kts 30°
2026-04-30 07:14 -26.99004 -52.54208 35078 ft 500 kts 30°
2026-04-30 07:14 -26.93429 -52.49532 35074 ft 500 kts 30°
2026-04-30 07:15 -26.87846 -52.44889 35079 ft 501 kts 29°
2026-04-30 07:15 -26.82240 -52.40245 35079 ft 502 kts 29°
2026-04-30 07:16 -26.76635 -52.35609 35086 ft 502 kts 29°
2026-04-30 07:16 -26.71953 -52.31739 35088 ft 502 kts 29°
2026-04-30 07:17 -26.65387 -52.26318 35089 ft 502 kts 29°
2026-04-30 07:18 -26.57874 -52.20125 35069 ft 503 kts 28°
2026-04-30 07:18 -26.52251 -52.15497 35098 ft 505 kts 28°
2026-04-30 07:19 -26.46568 -52.10826 35096 ft 506 kts 28°
2026-04-30 07:19 -26.40917 -52.06186 35101 ft 506 kts 28°
2026-04-30 07:20 -26.35263 -52.01549 35101 ft 506 kts 28°
2026-04-30 07:20 -26.29558 -51.96877 35100 ft 507 kts 28°
2026-04-30 07:21 -26.23895 -51.92245 35091 ft 507 kts 27°
2026-04-30 07:21 -26.18213 -51.87604 35107 ft 507 kts 27°
2026-04-30 07:22 -26.09691 -51.80652 35092 ft 507 kts 27°
2026-04-30 07:22 -26.03975 -51.76002 35104 ft 508 kts 27°
2026-04-30 07:23 -25.98278 -51.71370 35098 ft 507 kts 27°
2026-04-30 07:23 -25.92577 -51.66740 35097 ft 507 kts 27°
2026-04-30 07:24 -25.86895 -51.62131 35097 ft 507 kts 27°
2026-04-30 07:24 -25.81211 -51.57525 35096 ft 507 kts 27°
2026-04-30 07:25 -25.75538 -51.52933 35087 ft 506 kts 27°
2026-04-30 07:25 -25.69855 -51.48340 35095 ft 506 kts 27°
2026-04-30 07:26 -25.64138 -51.43728 35093 ft 506 kts 27°
2026-04-30 07:26 -25.58463 -51.39153 35091 ft 506 kts 27°
2026-04-30 07:27 -25.52687 -51.34797 35094 ft 500 kts 23°
2026-04-30 07:27 -25.46812 -51.30690 35088 ft 499 kts 22°
2026-04-30 07:28 -25.40959 -51.26581 35090 ft 500 kts 23°
2026-04-30 07:28 -25.35111 -51.22420 35085 ft 500 kts 23°
2026-04-30 07:29 -25.29272 -51.18245 35087 ft 500 kts 23°
2026-04-30 07:29 -25.23435 -51.14051 35080 ft 501 kts 24°
2026-04-30 07:30 -25.14671 -51.07735 35081 ft 501 kts 24°
2026-04-30 07:31 -25.08821 -51.03533 35077 ft 501 kts 24°
2026-04-30 07:31 -25.03012 -50.99370 35079 ft 500 kts 23°
2026-04-30 07:32 -24.97144 -50.95197 35062 ft 500 kts 24°
2026-04-30 07:32 -24.91293 -50.91041 35066 ft 499 kts 24°
2026-04-30 07:33 -24.85477 -50.86910 35073 ft 500 kts 24°
2026-04-30 07:33 -24.79650 -50.82781 35074 ft 499 kts 24°
2026-04-30 07:34 -24.73807 -50.78647 35073 ft 499 kts 24°
2026-04-30 07:34 -24.67984 -50.74531 35071 ft 498 kts 24°
2026-04-30 07:35 -24.62167 -50.70422 35066 ft 498 kts 24°
2026-04-30 07:35 -24.56308 -50.66291 35068 ft 498 kts 24°
2026-04-30 07:36 -24.50492 -50.62185 35069 ft 498 kts 24°
2026-04-30 07:36 -24.44675 -50.58080 35065 ft 498 kts 24°
2026-04-30 07:37 -24.38830 -50.53960 35069 ft 498 kts 24°
2026-04-30 07:37 -24.33034 -50.49883 35064 ft 498 kts 25°
2026-04-30 07:38 -24.27182 -50.45772 35058 ft 498 kts 25°
2026-04-30 07:38 -24.21365 -50.41690 35052 ft 498 kts 25°
2026-04-30 07:39 -24.15503 -50.37580 35060 ft 499 kts 25°
2026-04-30 07:39 -24.09693 -50.33508 35054 ft 498 kts 25°
2026-04-30 07:40 -24.03826 -50.29398 35044 ft 498 kts 25°
2026-04-30 07:40 -23.97997 -50.25324 35052 ft 499 kts 25°
2026-04-30 07:41 -23.92148 -50.21249 35048 ft 498 kts 25°
2026-04-30 07:41 -23.86315 -50.17186 35046 ft 499 kts 25°
2026-04-30 07:42 -23.80445 -50.13106 35043 ft 499 kts 25°
2026-04-30 07:42 -23.74603 -50.09047 35044 ft 499 kts 25°
2026-04-30 07:43 -23.68755 -50.04974 35042 ft 498 kts 25°
2026-04-30 07:43 -23.62928 -50.00921 35043 ft 498 kts 25°
2026-04-30 07:44 -23.57092 -49.96870 35039 ft 498 kts 25°
2026-04-30 07:44 -23.51267 -49.92831 35043 ft 498 kts 25°
2026-04-30 07:45 -23.45407 -49.88773 35041 ft 498 kts 25°
2026-04-30 07:45 -23.39573 -49.84737 35042 ft 498 kts 26°
2026-04-30 07:46 -23.33749 -49.80711 35039 ft 497 kts 26°
2026-04-30 07:46 -23.27881 -49.76660 35045 ft 497 kts 26°
2026-04-30 07:47 -23.22053 -49.72644 35037 ft 497 kts 26°
2026-04-30 07:47 -23.16231 -49.68640 35046 ft 496 kts 26°
2026-04-30 07:48 -23.10399 -49.64627 35028 ft 497 kts 26°
2026-04-30 07:48 -23.04550 -49.60604 35044 ft 497 kts 26°
2026-04-30 07:49 -22.98721 -49.56606 35042 ft 497 kts 26°
2026-04-30 07:49 -22.92890 -49.52609 35043 ft 496 kts 26°
2026-04-30 07:50 -22.87057 -49.48616 35043 ft 496 kts 26°
2026-04-30 07:50 -22.81228 -49.44640 35049 ft 496 kts 26°
2026-04-30 07:51 -22.75346 -49.40651 35050 ft 496 kts 26°
2026-04-30 07:51 -22.69502 -49.36692 35059 ft 496 kts 26°
2026-04-30 07:52 -22.63671 -49.32744 35053 ft 496 kts 26°
2026-04-30 07:52 -22.57798 -49.28772 35051 ft 496 kts 26°
2026-04-30 07:53 -22.51976 -49.24826 35058 ft 496 kts 26°
2026-04-30 07:53 -22.46126 -49.20791 35050 ft 495 kts 27°
2026-04-30 07:54 -22.40567 -49.16426 35058 ft 501 kts 39°
2026-04-30 07:54 -22.38234 -49.13593 35054 ft 507 kts 50°
2026-04-30 07:54 -22.36294 -49.10431 35059 ft 510 kts 54°
2026-04-30 07:55 -22.32688 -49.03797 35051 ft 512 kts 57°
2026-04-30 07:55 -22.29200 -48.97109 35052 ft 512 kts 57°
2026-04-30 07:56 -22.25668 -48.90407 35060 ft 512 kts 57°
2026-04-30 07:56 -22.22128 -48.83767 35057 ft 512 kts 56°
2026-04-30 07:57 -22.18567 -48.77124 35060 ft 512 kts 56°
2026-04-30 07:57 -22.14978 -48.70444 35063 ft 512 kts 56°
2026-04-30 07:58 -22.11433 -48.63841 35060 ft 512 kts 57°
2026-04-30 07:58 -22.07864 -48.57201 35059 ft 512 kts 57°
2026-04-30 07:59 -22.04287 -48.50558 35063 ft 512 kts 56°
2026-04-30 07:59 -22.00718 -48.43937 35065 ft 512 kts 56°
2026-04-30 08:00 -21.95343 -48.33983 35074 ft 512 kts 56°
2026-04-30 08:00 -21.91769 -48.27375 35078 ft 512 kts 56°
2026-04-30 08:01 -21.88185 -48.20755 35072 ft 512 kts 57°
2026-04-30 08:01 -21.84598 -48.14145 35074 ft 512 kts 57°
2026-04-30 08:02 -21.79228 -48.04230 35083 ft 511 kts 57°
2026-04-30 08:03 -21.72061 -47.91061 35083 ft 510 kts 56°
2026-04-30 08:04 -21.68474 -47.84478 35088 ft 510 kts 56°
2026-04-30 08:04 -21.64893 -47.77910 35094 ft 510 kts 56°
2026-04-30 08:05 -21.61296 -47.71321 35093 ft 509 kts 56°
2026-04-30 08:05 -21.57707 -47.64769 35095 ft 509 kts 56°
2026-04-30 08:06 -21.54128 -47.58237 35099 ft 509 kts 56°
2026-04-30 08:06 -21.50547 -47.51707 35102 ft 508 kts 56°
2026-04-30 08:07 -21.46961 -47.45177 35102 ft 508 kts 56°
2026-04-30 08:07 -21.43348 -47.38608 35099 ft 508 kts 56°
2026-04-30 08:08 -21.39758 -47.32092 35105 ft 509 kts 56°
2026-04-30 08:08 -21.35589 -47.26046 35111 ft 500 kts 40°
2026-04-30 08:08 -21.32956 -47.23699 35110 ft 492 kts 29°
2026-04-30 08:09 -21.30076 -47.21774 35117 ft 490 kts 25°
2026-04-30 08:09 -21.24110 -47.18207 35112 ft 489 kts 24°
2026-04-30 08:10 -21.18129 -47.14766 35111 ft 489 kts 24°
2026-04-30 08:10 -21.12134 -47.11292 35113 ft 489 kts 24°
2026-04-30 08:11 -21.06171 -47.07808 35113 ft 489 kts 24°
2026-04-30 08:11 -21.00209 -47.04316 35115 ft 489 kts 24°
2026-04-30 08:12 -20.95227 -47.01400 35114 ft 489 kts 24°
2026-04-30 08:12 -20.89267 -46.97916 35108 ft 489 kts 24°
2026-04-30 08:13 -20.83313 -46.94440 35110 ft 489 kts 24°
2026-04-30 08:13 -20.77316 -46.90942 35117 ft 489 kts 24°
2026-04-30 08:14 -20.71360 -46.87471 35103 ft 488 kts 24°
2026-04-30 08:14 -20.65414 -46.84009 35112 ft 488 kts 24°
2026-04-30 08:15 -20.59458 -46.80545 35098 ft 488 kts 24°
2026-04-30 08:15 -20.53500 -46.77083 35107 ft 488 kts 24°
2026-04-30 08:16 -20.47528 -46.73616 35102 ft 488 kts 25°
2026-04-30 08:16 -20.41575 -46.70162 35100 ft 488 kts 25°
2026-04-30 08:17 -20.35613 -46.66707 35099 ft 488 kts 25°
2026-04-30 08:17 -20.29655 -46.63257 35103 ft 488 kts 25°
2026-04-30 08:18 -20.23702 -46.59813 35091 ft 488 kts 25°
2026-04-30 08:18 -20.17713 -46.56351 35101 ft 488 kts 25°
2026-04-30 08:19 -20.11763 -46.52916 35103 ft 487 kts 25°
2026-04-30 08:19 -20.05823 -46.49488 35106 ft 487 kts 25°
2026-04-30 08:20 -19.99850 -46.46044 35109 ft 487 kts 25°
2026-04-30 08:20 -19.93908 -46.42620 35110 ft 487 kts 25°
2026-04-30 08:21 -19.87955 -46.39194 35114 ft 487 kts 25°
2026-04-30 08:21 -19.81981 -46.35759 35114 ft 487 kts 25°
2026-04-30 08:22 -19.76044 -46.32347 35116 ft 487 kts 25°
2026-04-30 08:22 -19.70094 -46.28932 35117 ft 487 kts 25°
2026-04-30 08:23 -19.64115 -46.25504 35115 ft 487 kts 25°
2026-04-30 08:23 -19.58159 -46.22093 35112 ft 487 kts 25°
2026-04-30 08:24 -19.52178 -46.18670 35113 ft 487 kts 25°
2026-04-30 08:24 -19.46227 -46.15266 35116 ft 488 kts 25°
2026-04-30 08:25 -19.40253 -46.11853 35114 ft 488 kts 25°
2026-04-30 08:25 -19.34269 -46.08436 35110 ft 488 kts 25°
2026-04-30 08:26 -19.28317 -46.05041 35110 ft 488 kts 26°
2026-04-30 08:26 -19.22358 -46.01645 35109 ft 488 kts 26°
2026-04-30 08:27 -19.16362 -45.98231 35101 ft 488 kts 26°
2026-04-30 08:27 -19.10414 -45.94844 35102 ft 488 kts 26°
2026-04-30 08:28 -19.04434 -45.91440 35096 ft 488 kts 26°
2026-04-30 08:28 -18.98450 -45.88037 35094 ft 487 kts 26°
2026-04-30 08:29 -18.92492 -45.84651 35093 ft 487 kts 26°
2026-04-30 08:29 -18.86523 -45.81263 35096 ft 487 kts 26°
2026-04-30 08:30 -18.80557 -45.77880 35089 ft 487 kts 26°
2026-04-30 08:30 -18.74595 -45.74508 35087 ft 487 kts 26°
2026-04-30 08:31 -18.68615 -45.71130 35085 ft 487 kts 26°
2026-04-30 08:31 -18.62651 -45.67761 35076 ft 487 kts 26°
2026-04-30 08:32 -18.56664 -45.64381 35076 ft 487 kts 26°
2026-04-30 08:32 -18.50694 -45.61013 35075 ft 487 kts 26°
2026-04-30 08:33 -18.44740 -45.57658 35072 ft 487 kts 26°
2026-04-30 08:33 -18.38738 -45.54386 35074 ft 486 kts 24°
2026-04-30 08:34 -18.32636 -45.51243 35074 ft 486 kts 24°
2026-04-30 08:34 -18.26579 -45.48126 35073 ft 486 kts 24°
2026-04-30 08:35 -18.20520 -45.44980 35071 ft 486 kts 24°
2026-04-30 08:35 -18.14474 -45.41829 35072 ft 486 kts 24°
2026-04-30 08:36 -18.08409 -45.38670 35070 ft 485 kts 25°
2026-04-30 08:36 -18.02392 -45.35540 35075 ft 484 kts 25°
2026-04-30 08:37 -17.96377 -45.32412 35075 ft 484 kts 25°
2026-04-30 08:37 -17.90335 -45.29270 35072 ft 484 kts 25°
2026-04-30 08:38 -17.84316 -45.26144 35075 ft 484 kts 25°
2026-04-30 08:38 -17.78265 -45.23004 35075 ft 483 kts 25°
2026-04-30 08:39 -17.72265 -45.19892 35073 ft 483 kts 25°
2026-04-30 08:39 -17.66249 -45.16775 35072 ft 482 kts 25°
2026-04-30 08:40 -17.60259 -45.13542 35069 ft 483 kts 27°
2026-04-30 08:40 -17.54365 -45.10240 35068 ft 483 kts 27°
2026-04-30 08:41 -17.48417 -45.06926 35068 ft 482 kts 27°
2026-04-30 08:41 -17.42512 -45.03664 35069 ft 482 kts 27°
2026-04-30 08:42 -17.36579 -45.00439 35068 ft 481 kts 26°
2026-04-30 08:42 -17.30548 -44.97308 35067 ft 481 kts 25°
2026-04-30 08:43 -17.24549 -44.94211 35061 ft 481 kts 25°
2026-04-30 08:43 -17.18576 -44.91109 35064 ft 480 kts 26°
2026-04-30 08:44 -17.12594 -44.87993 35060 ft 480 kts 26°
2026-04-30 08:44 -17.06630 -44.84886 35062 ft 480 kts 26°
2026-04-30 08:45 -17.00627 -44.81761 35061 ft 480 kts 26°
2026-04-30 08:45 -16.94667 -44.78662 35061 ft 480 kts 26°
2026-04-30 08:46 -16.88705 -44.75564 35060 ft 480 kts 26°
2026-04-30 08:46 -16.82558 -44.72790 35062 ft 480 kts 20°
2026-04-30 08:47 -16.76283 -44.70399 35057 ft 480 kts 19°
2026-04-30 08:47 -16.69997 -44.68071 35064 ft 480 kts 19°
2026-04-30 08:48 -16.63727 -44.65749 35061 ft 480 kts 19°
2026-04-30 08:48 -16.57439 -44.63414 35058 ft 480 kts 19°
2026-04-30 08:49 -16.51134 -44.61069 35063 ft 480 kts 19°
2026-04-30 08:49 -16.44812 -44.58718 35062 ft 480 kts 19°
2026-04-30 08:50 -16.38532 -44.56385 35062 ft 481 kts 19°
2026-04-30 08:50 -16.32241 -44.54050 35061 ft 481 kts 19°
2026-04-30 08:51 -16.25914 -44.51703 35068 ft 482 kts 19°
2026-04-30 08:51 -16.19631 -44.49374 35064 ft 481 kts 19°
2026-04-30 08:52 -16.13324 -44.47038 35063 ft 481 kts 19°
2026-04-30 08:52 -16.07000 -44.44697 35064 ft 481 kts 19°
2026-04-30 08:53 -16.00697 -44.42366 35063 ft 481 kts 19°
2026-04-30 08:53 -15.94392 -44.40035 35057 ft 481 kts 20°
2026-04-30 08:54 -15.88054 -44.37693 35067 ft 482 kts 20°
2026-04-30 08:54 -15.81762 -44.35370 35065 ft 483 kts 20°
2026-04-30 08:55 -15.75413 -44.33028 35060 ft 483 kts 20°
2026-04-30 08:55 -15.69101 -44.30701 35058 ft 483 kts 20°
2026-04-30 08:56 -15.62782 -44.28373 35062 ft 483 kts 20°
2026-04-30 08:56 -15.56416 -44.26029 35058 ft 483 kts 20°
2026-04-30 08:57 -15.50090 -44.23701 35059 ft 483 kts 20°
2026-04-30 08:57 -15.43778 -44.21381 35061 ft 482 kts 20°
2026-04-30 08:58 -15.37450 -44.19057 35058 ft 481 kts 20°
2026-04-30 08:58 -15.31129 -44.16737 35059 ft 481 kts 20°
2026-04-30 08:59 -15.24820 -44.14422 35063 ft 481 kts 20°
2026-04-30 08:59 -15.18546 -44.12123 35061 ft 481 kts 20°
2026-04-30 09:00 -15.12282 -44.09689 35068 ft 480 kts 25°
2026-04-30 09:00 -15.06200 -44.06793 35064 ft 480 kts 26°
2026-04-30 09:01 -15.00174 -44.03835 35063 ft 480 kts 27°
2026-04-30 09:01 -14.94151 -44.00868 35061 ft 480 kts 27°
2026-04-30 09:02 -14.85135 -43.96446 35058 ft 480 kts 27°
2026-04-30 09:02 -14.79092 -43.93489 35058 ft 480 kts 27°
2026-04-30 09:03 -14.73065 -43.90542 35053 ft 479 kts 27°
2026-04-30 09:03 -14.67051 -43.87603 35053 ft 479 kts 27°
2026-04-30 09:04 -14.60993 -43.84644 35053 ft 479 kts 27°
2026-04-30 09:04 -14.54992 -43.81715 35052 ft 479 kts 27°
2026-04-30 09:05 -14.48981 -43.78782 35050 ft 479 kts 27°
2026-04-30 09:05 -14.42918 -43.75826 35050 ft 479 kts 27°
2026-04-30 09:06 -14.37925 -43.73393 35048 ft 479 kts 27°
2026-04-30 09:06 -14.30901 -43.69973 35048 ft 479 kts 27°
2026-04-30 09:07 -14.25859 -43.67519 35042 ft 479 kts 27°
2026-04-30 09:07 -14.19853 -43.64598 35042 ft 479 kts 27°
2026-04-30 09:08 -14.13801 -43.61656 35040 ft 479 kts 27°
2026-04-30 09:08 -14.07790 -43.58735 35037 ft 479 kts 27°
2026-04-30 09:09 -14.01772 -43.55814 35037 ft 479 kts 27°
2026-04-30 09:09 -13.95769 -43.52901 35037 ft 479 kts 27°
2026-04-30 09:10 -13.89713 -43.49964 35034 ft 479 kts 27°
2026-04-30 09:10 -13.83699 -43.47049 35034 ft 479 kts 27°
2026-04-30 09:11 -13.77690 -43.44138 35031 ft 479 kts 27°
2026-04-30 09:11 -13.71674 -43.41225 35032 ft 479 kts 27°
2026-04-30 09:12 -13.65624 -43.38299 35031 ft 479 kts 27°
2026-04-30 09:12 -13.59619 -43.35394 35026 ft 478 kts 27°
2026-04-30 09:13 -13.53607 -43.32489 35029 ft 478 kts 27°
2026-04-30 09:13 -13.47590 -43.29583 35023 ft 478 kts 27°
2026-04-30 09:14 -13.41554 -43.26669 35024 ft 478 kts 27°
2026-04-30 09:14 -13.35546 -43.23770 35024 ft 478 kts 27°
2026-04-30 09:15 -13.29516 -43.20862 35023 ft 477 kts 27°
2026-04-30 09:15 -13.23529 -43.17977 35023 ft 477 kts 27°
2026-04-30 09:16 -13.17496 -43.15071 35024 ft 477 kts 27°
2026-04-30 09:16 -13.11507 -43.12187 35024 ft 477 kts 27°
2026-04-30 09:17 -13.05500 -43.09297 35020 ft 477 kts 27°
2026-04-30 09:17 -12.99480 -43.06402 35020 ft 477 kts 27°
2026-04-30 09:18 -12.93484 -43.03520 35017 ft 477 kts 27°
2026-04-30 09:18 -12.87496 -43.00643 35024 ft 477 kts 27°
2026-04-30 09:19 -12.81464 -42.97747 35021 ft 477 kts 27°
2026-04-30 09:19 -12.75468 -42.94870 35020 ft 477 kts 27°
2026-04-30 09:20 -12.69432 -42.91975 35026 ft 477 kts 27°
2026-04-30 09:20 -12.63431 -42.89097 35023 ft 477 kts 27°
2026-04-30 09:21 -12.57433 -42.86224 35026 ft 477 kts 27°
2026-04-30 09:21 -12.51405 -42.83338 35026 ft 477 kts 27°
2026-04-30 09:22 -12.45420 -42.80476 35026 ft 477 kts 27°
2026-04-30 09:22 -12.39416 -42.77605 35030 ft 477 kts 27°
2026-04-30 09:23 -12.33379 -42.74720 35031 ft 477 kts 26°
2026-04-30 09:23 -12.27379 -42.71855 35032 ft 477 kts 26°
2026-04-30 09:24 -12.21381 -42.68992 35037 ft 477 kts 26°
2026-04-30 09:24 -12.15370 -42.66124 35037 ft 477 kts 26°
2026-04-30 09:25 -12.09367 -42.63262 35037 ft 476 kts 27°
2026-04-30 09:25 -12.03367 -42.60403 35046 ft 477 kts 26°
2026-04-30 09:26 -11.97354 -42.57538 35048 ft 477 kts 26°
2026-04-30 09:26 -11.91335 -42.54670 35048 ft 477 kts 26°
2026-04-30 09:27 -11.85300 -42.51795 35058 ft 478 kts 27°
2026-04-30 09:27 -11.79281 -42.48929 35058 ft 477 kts 27°
2026-04-30 09:28 -11.73264 -42.46064 35056 ft 478 kts 27°
2026-04-30 09:28 -11.67264 -42.43209 35062 ft 478 kts 27°
2026-04-30 09:29 -11.61233 -42.40341 35067 ft 479 kts 27°
2026-04-30 09:29 -11.55185 -42.37466 35062 ft 478 kts 26°
2026-04-30 09:30 -11.49147 -42.34600 35066 ft 478 kts 26°
2026-04-30 09:30 -11.43116 -42.31736 35058 ft 478 kts 26°
2026-04-30 09:31 -11.37083 -42.28873 35053 ft 478 kts 27°
2026-04-30 09:31 -11.31043 -42.26009 35053 ft 479 kts 26°
2026-04-30 09:32 -11.25026 -42.23156 35055 ft 478 kts 27°
2026-04-30 09:32 -11.19001 -42.20300 35053 ft 478 kts 26°
2026-04-30 09:33 -11.12973 -42.17443 35048 ft 479 kts 26°
2026-04-30 09:33 -11.06952 -42.14593 35040 ft 479 kts 26°
2026-04-30 09:34 -11.01147 -42.11263 35045 ft 476 kts 39°
2026-04-30 09:34 -10.96484 -42.06563 35037 ft 473 kts 51°
2026-04-30 09:35 -10.92269 -42.01439 35039 ft 473 kts 52°
2026-04-30 09:35 -10.88114 -41.96255 35034 ft 474 kts 52°
2026-04-30 09:36 -10.83904 -41.91038 35037 ft 475 kts 52°
2026-04-30 09:36 -10.79699 -41.85866 35040 ft 475 kts 52°
2026-04-30 09:37 -10.75502 -41.80723 35037 ft 475 kts 52°
2026-04-30 09:37 -10.71275 -41.75533 35040 ft 474 kts 52°
2026-04-30 09:38 -10.67078 -41.70379 35037 ft 475 kts 52°
2026-04-30 09:38 -10.62873 -41.65219 35042 ft 475 kts 52°
2026-04-30 09:39 -10.58639 -41.60028 35051 ft 476 kts 52°
2026-04-30 09:39 -10.54431 -41.54866 35050 ft 475 kts 52°
2026-04-30 09:40 -10.50195 -41.49696 35052 ft 475 kts 52°
2026-04-30 09:40 -10.45982 -41.44561 35053 ft 475 kts 52°
2026-04-30 09:41 -10.41730 -41.39373 35053 ft 476 kts 52°
2026-04-30 09:41 -10.37494 -41.34202 35063 ft 476 kts 52°
2026-04-30 09:42 -10.33267 -41.29047 35055 ft 476 kts 51°
2026-04-30 09:42 -10.29033 -41.23888 35058 ft 476 kts 52°
2026-04-30 09:43 -10.24803 -41.18733 35060 ft 476 kts 52°
2026-04-30 09:43 -10.20567 -41.13570 35059 ft 476 kts 53°
2026-04-30 09:44 -10.16330 -41.08406 35060 ft 477 kts 52°
2026-04-30 09:44 -10.12073 -41.03218 35056 ft 476 kts 52°
2026-04-30 09:45 -10.07841 -40.98064 35053 ft 476 kts 52°
2026-04-30 09:45 -10.03596 -40.92891 35048 ft 476 kts 52°
2026-04-30 09:46 -9.99350 -40.87733 35049 ft 477 kts 52°
2026-04-30 09:46 -9.95107 -40.82583 35042 ft 478 kts 52°
2026-04-30 09:47 -9.90847 -40.77410 35042 ft 478 kts 52°
2026-04-30 09:47 -9.86570 -40.72214 35043 ft 478 kts 52°
2026-04-30 09:48 -9.82325 -40.67060 35044 ft 478 kts 51°
2026-04-30 09:48 -9.78063 -40.61893 35042 ft 479 kts 51°
2026-04-30 09:49 -9.73777 -40.56700 35037 ft 479 kts 51°
2026-04-30 09:49 -9.69520 -40.51542 35035 ft 479 kts 51°
2026-04-30 09:50 -9.65223 -40.46343 35031 ft 479 kts 51°
2026-04-30 09:50 -9.60963 -40.41180 35030 ft 479 kts 51°
2026-04-30 09:51 -9.56688 -40.36001 35030 ft 479 kts 51°
2026-04-30 09:51 -9.52409 -40.30821 35034 ft 479 kts 51°
2026-04-30 09:52 -9.48134 -40.25650 35034 ft 480 kts 51°
2026-04-30 09:52 -9.43839 -40.20457 35034 ft 480 kts 51°
2026-04-30 09:53 -9.39555 -40.15279 35038 ft 480 kts 51°
2026-04-30 09:53 -9.35275 -40.10109 35031 ft 480 kts 51°
2026-04-30 09:54 -9.30968 -40.04908 35031 ft 480 kts 51°
2026-04-30 09:54 -9.26691 -39.99746 35032 ft 480 kts 51°
2026-04-30 09:55 -9.22401 -39.94569 35031 ft 481 kts 51°
2026-04-30 09:55 -9.18097 -39.89378 35031 ft 481 kts 51°
2026-04-30 09:56 -9.13804 -39.84203 35031 ft 481 kts 51°
2026-04-30 09:56 -9.09502 -39.79019 35032 ft 481 kts 51°
2026-04-30 09:57 -9.05227 -39.73871 35031 ft 480 kts 51°
2026-04-30 09:57 -9.00932 -39.68702 35032 ft 480 kts 51°
2026-04-30 09:58 -8.96612 -39.63506 35029 ft 480 kts 51°
2026-04-30 09:58 -8.92317 -39.58342 35029 ft 480 kts 51°
2026-04-30 09:59 -8.83728 -39.48022 35026 ft 480 kts 51°
2026-04-30 10:00 -8.77267 -39.40264 35030 ft 480 kts 51°
2026-04-30 10:01 -8.70837 -39.32547 35026 ft 480 kts 51°
2026-04-30 10:02 -8.64380 -39.24803 35023 ft 480 kts 51°
2026-04-30 10:02 -8.60084 -39.19653 35021 ft 480 kts 51°
2026-04-30 10:03 -8.55799 -39.14518 35020 ft 480 kts 51°
2026-04-30 10:03 -8.51496 -39.09364 35021 ft 480 kts 51°
2026-04-30 10:04 -8.47906 -39.05065 35021 ft 480 kts 51°
2026-04-30 10:04 -8.43584 -38.99893 35020 ft 480 kts 51°
2026-04-30 10:05 -8.39291 -38.94753 35019 ft 480 kts 51°
2026-04-30 10:05 -8.34976 -38.89588 35023 ft 480 kts 51°
2026-04-30 10:06 -8.30682 -38.84451 35021 ft 480 kts 51°
2026-04-30 10:06 -8.26388 -38.79312 35022 ft 480 kts 51°
2026-04-30 10:07 -8.22054 -38.74142 35023 ft 481 kts 51°
2026-04-30 10:07 -8.17736 -38.68998 35023 ft 481 kts 51°
2026-04-30 10:08 -8.13424 -38.63861 35025 ft 481 kts 51°
2026-04-30 10:08 -8.09115 -38.58726 35026 ft 481 kts 51°
2026-04-30 10:09 -8.04778 -38.53559 35023 ft 481 kts 51°
2026-04-30 10:09 -8.00464 -38.48422 35022 ft 481 kts 51°
2026-04-30 10:10 -7.96146 -38.43281 35018 ft 482 kts 51°
2026-04-30 10:10 -7.91832 -38.38122 35021 ft 482 kts 51°
2026-04-30 10:11 -7.87523 -38.32957 35023 ft 482 kts 51°
2026-04-30 10:11 -7.83185 -38.27764 35021 ft 482 kts 51°
2026-04-30 10:12 -7.78814 -38.22664 35017 ft 482 kts 46°
2026-04-30 10:12 -7.73439 -38.18672 35019 ft 483 kts 27°
2026-04-30 10:13 -7.67385 -38.15735 35015 ft 484 kts 25°
2026-04-30 10:13 -7.61195 -38.12955 35010 ft 485 kts 24°
2026-04-30 10:14 -7.55047 -38.10199 35009 ft 484 kts 25°
2026-04-30 10:14 -7.45828 -38.06014 35005 ft 485 kts 25°
2026-04-30 10:15 -7.39688 -38.03215 34998 ft 485 kts 25°
2026-04-30 10:15 -7.33567 -38.00426 34998 ft 485 kts 25°
2026-04-30 10:16 -7.27430 -37.97631 34990 ft 485 kts 25°
2026-04-30 10:17 -7.18184 -37.93424 34988 ft 485 kts 25°
2026-04-30 10:17 -7.08976 -37.89231 34991 ft 485 kts 25°
2026-04-30 10:18 -7.02844 -37.86436 34988 ft 485 kts 25°
2026-04-30 10:19 -6.93641 -37.82244 34985 ft 485 kts 25°
2026-04-30 10:19 -6.87456 -37.79429 34982 ft 485 kts 25°
2026-04-30 10:20 -6.81331 -37.76642 34982 ft 486 kts 24°
2026-04-30 10:20 -6.72080 -37.72440 34982 ft 486 kts 25°
2026-04-30 10:21 -6.65944 -37.69648 34979 ft 486 kts 25°
2026-04-30 10:21 -6.59769 -37.66840 34978 ft 486 kts 24°
2026-04-30 10:22 -6.53635 -37.64054 34979 ft 486 kts 24°
2026-04-30 10:22 -6.47480 -37.61259 34974 ft 486 kts 24°
2026-04-30 10:23 -6.41299 -37.58452 34977 ft 486 kts 24°
2026-04-30 10:23 -6.35156 -37.55664 34975 ft 486 kts 24°
2026-04-30 10:24 -6.29001 -37.52870 34974 ft 486 kts 24°
2026-04-30 10:24 -6.22848 -37.50079 34971 ft 486 kts 24°
2026-04-30 10:25 -6.16689 -37.47285 34971 ft 486 kts 24°
2026-04-30 10:25 -6.10540 -37.44497 34969 ft 486 kts 24°
2026-04-30 10:26 -6.04393 -37.41710 34978 ft 486 kts 24°
2026-04-30 10:26 -5.98218 -37.38913 34965 ft 486 kts 24°
2026-04-30 10:27 -5.92053 -37.36119 34960 ft 487 kts 24°
2026-04-30 10:27 -5.85888 -37.33326 34964 ft 487 kts 24°
2026-04-30 10:28 -5.79738 -37.30540 34964 ft 487 kts 24°
2026-04-30 10:28 -5.73576 -37.27751 34964 ft 487 kts 24°
2026-04-30 10:29 -5.67410 -37.24933 34958 ft 487 kts 25°
2026-04-30 10:29 -5.61241 -37.22102 34956 ft 487 kts 25°
2026-04-30 10:30 -5.55083 -37.19282 34959 ft 487 kts 25°
2026-04-30 10:30 -5.48917 -37.16462 34959 ft 487 kts 25°
2026-04-30 10:31 -5.42727 -37.13635 34954 ft 487 kts 25°
2026-04-30 10:31 -5.36585 -37.10827 34951 ft 487 kts 25°
2026-04-30 10:32 -5.30427 -37.08011 34951 ft 487 kts 25°
2026-04-30 10:32 -5.24268 -37.05196 34951 ft 487 kts 25°
2026-04-30 10:33 -5.18082 -37.02369 34950 ft 487 kts 25°
2026-04-30 10:33 -5.11924 -36.99556 34950 ft 487 kts 25°
2026-04-30 10:34 -5.05729 -36.96727 34947 ft 488 kts 25°
2026-04-30 10:34 -4.99575 -36.93917 34948 ft 488 kts 25°
2026-04-30 10:35 -4.93414 -36.91103 34948 ft 488 kts 25°
2026-04-30 10:35 -4.87221 -36.88274 34946 ft 488 kts 25°
2026-04-30 10:36 -4.81048 -36.85459 34950 ft 491 kts 25°
2026-04-30 10:36 -4.74800 -36.82609 34944 ft 493 kts 25°
2026-04-30 10:37 -4.68579 -36.79772 34941 ft 493 kts 25°
2026-04-30 10:37 -4.62349 -36.76935 34941 ft 492 kts 25°
2026-04-30 10:38 -4.56116 -36.74093 34942 ft 493 kts 25°
2026-04-30 10:38 -4.49896 -36.71258 34941 ft 492 kts 25°
2026-04-30 10:39 -4.43639 -36.68406 34943 ft 492 kts 25°
2026-04-30 10:39 -4.37425 -36.65575 34942 ft 492 kts 25°
2026-04-30 10:40 -4.31199 -36.62740 34941 ft 492 kts 25°
2026-04-30 10:40 -4.24982 -36.59909 34935 ft 492 kts 25°
2026-04-30 10:41 -4.18723 -36.57060 34938 ft 492 kts 25°
2026-04-30 10:41 -4.12504 -36.54229 34935 ft 492 kts 25°
2026-04-30 10:42 -4.06289 -36.51401 34936 ft 492 kts 25°
2026-04-30 10:42 -4.00038 -36.48557 34935 ft 492 kts 25°
2026-04-30 10:43 -3.93809 -36.45723 34935 ft 493 kts 25°
2026-04-30 10:43 -3.87580 -36.42890 34930 ft 493 kts 25°
2026-04-30 10:44 -3.81341 -36.40053 34933 ft 493 kts 25°
2026-04-30 10:44 -3.75079 -36.37206 34931 ft 493 kts 25°
2026-04-30 10:45 -3.68852 -36.34375 34932 ft 493 kts 25°
2026-04-30 10:45 -3.62570 -36.31519 34932 ft 495 kts 25°
2026-04-30 10:46 -3.56317 -36.28677 34937 ft 494 kts 25°
2026-04-30 10:46 -3.50061 -36.25834 34938 ft 494 kts 25°
2026-04-30 10:47 -3.43802 -36.22990 34936 ft 495 kts 25°
2026-04-30 10:47 -3.37555 -36.20152 34935 ft 494 kts 25°
2026-04-30 10:48 -3.31304 -36.17312 34938 ft 494 kts 25°
2026-04-30 10:48 -3.25014 -36.14456 34934 ft 495 kts 25°
2026-04-30 10:49 -3.18770 -36.11621 34933 ft 495 kts 25°
2026-04-30 10:49 -3.12511 -36.08780 34933 ft 494 kts 25°
2026-04-30 10:50 -3.06253 -36.05939 34930 ft 494 kts 25°
2026-04-30 10:50 -3.00000 -36.03100 34934 ft 492 kts 25°
2026-04-30 10:51 -2.93790 -36.00281 34936 ft 491 kts 25°
2026-04-30 10:51 -2.87554 -35.97451 34934 ft 491 kts 25°
2026-04-30 10:52 -2.81353 -35.94637 34935 ft 490 kts 25°
2026-04-30 10:52 -2.75160 -35.91828 34937 ft 490 kts 24°
2026-04-30 10:53 -2.68929 -35.89002 34940 ft 490 kts 25°
2026-04-30 10:53 -2.62726 -35.86188 34938 ft 490 kts 24°
2026-04-30 10:54 -2.56557 -35.83390 34936 ft 490 kts 24°
2026-04-30 10:54 -2.50351 -35.80575 34937 ft 490 kts 24°
2026-04-30 10:55 -2.44148 -35.77763 34940 ft 489 kts 25°
2026-04-30 10:55 -2.37979 -35.74966 34938 ft 487 kts 25°
2026-04-30 10:56 -2.31799 -35.72164 34936 ft 487 kts 25°
2026-04-30 10:56 -2.25640 -35.69372 34935 ft 487 kts 25°
2026-04-30 10:57 -2.19456 -35.66568 34938 ft 487 kts 25°
2026-04-30 10:57 -2.13285 -35.63771 34940 ft 487 kts 25°
2026-04-30 10:58 -2.07117 -35.60976 34933 ft 487 kts 25°
2026-04-30 10:58 -2.00942 -35.58178 34935 ft 487 kts 25°
2026-04-30 10:59 -1.94787 -35.55389 34939 ft 487 kts 25°
2026-04-30 10:59 -1.88583 -35.52578 34938 ft 487 kts 25°
2026-04-30 11:00 -1.82434 -35.49792 34941 ft 486 kts 25°
2026-04-30 11:00 -1.76303 -35.47015 34941 ft 485 kts 25°
2026-04-30 11:01 -1.70221 -35.44109 34945 ft 484 kts 29°
2026-04-30 11:01 -1.65331 -35.41364 34944 ft 484 kts 31°
2026-04-30 11:02 -1.59473 -35.38008 34944 ft 484 kts 31°
2026-04-30 11:02 -1.52630 -35.34187 34944 ft 484 kts 30°
2026-04-30 11:03 -1.47717 -35.31484 34944 ft 483 kts 30°
2026-04-30 11:04 -1.38876 -35.26635 34942 ft 483 kts 30°
2026-04-30 11:04 -1.32999 -35.23408 34944 ft 483 kts 30°
2026-04-30 11:05 -1.27121 -35.20179 34944 ft 483 kts 30°
2026-04-30 11:05 -1.21217 -35.16935 34947 ft 483 kts 30°
2026-04-30 11:06 -1.15329 -35.13701 34949 ft 484 kts 30°
2026-04-30 11:06 -1.09419 -35.10455 34947 ft 484 kts 30°
2026-04-30 11:07 -1.03531 -35.07221 34949 ft 484 kts 30°
2026-04-30 11:07 -0.97648 -35.03990 34949 ft 484 kts 30°
2026-04-30 11:08 -0.91737 -35.00744 34945 ft 484 kts 30°
2026-04-30 11:08 -0.85848 -34.97510 34946 ft 484 kts 30°
2026-04-30 11:09 -0.79951 -34.94272 34947 ft 484 kts 30°
2026-04-30 11:09 -0.74056 -34.91034 34946 ft 484 kts 30°
2026-04-30 11:10 -0.68159 -34.87796 34948 ft 484 kts 30°
2026-04-30 11:10 -0.62270 -34.84562 34946 ft 484 kts 29°
2026-04-30 11:11 -0.56377 -34.81326 34947 ft 485 kts 29°
2026-04-30 11:11 -0.50469 -34.78083 34947 ft 485 kts 29°
2026-04-30 11:12 -0.44557 -34.74837 34948 ft 485 kts 29°
2026-04-30 11:12 -0.38659 -34.71598 34950 ft 485 kts 29°
2026-04-30 11:13 -0.32750 -34.68354 34946 ft 485 kts 29°
2026-04-30 11:13 -0.26816 -34.65096 34947 ft 485 kts 30°
2026-04-30 11:14 -0.20906 -34.61851 34951 ft 485 kts 29°
2026-04-30 11:14 -0.14989 -34.58603 34949 ft 485 kts 30°
2026-04-30 11:15 -0.09097 -34.55368 34944 ft 485 kts 29°
2026-04-30 11:15 -0.03160 -34.52109 34946 ft 485 kts 30°
2026-04-30 11:16 0.02740 -34.48869 34949 ft 485 kts 29°
2026-04-30 11:16 0.08674 -34.45612 34950 ft 486 kts 30°
2026-04-30 11:17 0.14591 -34.42363 34950 ft 486 kts 29°
2026-04-30 11:17 0.20499 -34.39119 34950 ft 486 kts 29°
2026-04-30 11:18 0.26423 -34.35867 34950 ft 486 kts 29°
2026-04-30 11:18 0.35297 -34.30995 34950 ft 486 kts 29°
2026-04-30 11:19 0.41245 -34.27729 34952 ft 486 kts 30°
2026-04-30 11:19 0.47170 -34.24476 34952 ft 486 kts 29°
2026-04-30 11:20 0.53081 -34.21231 34950 ft 486 kts 29°
2026-04-30 11:20 0.59039 -34.17959 34950 ft 487 kts 29°
2026-04-30 11:21 0.64945 -34.14716 34951 ft 487 kts 29°
2026-04-30 11:21 0.70895 -34.11449 34952 ft 487 kts 29°
2026-04-30 11:22 0.76834 -34.08187 34949 ft 487 kts 30°
2026-04-30 11:22 0.82732 -34.04949 34948 ft 487 kts 30°
2026-04-30 11:23 0.88669 -34.01689 34951 ft 487 kts 29°
2026-04-30 11:24 0.97584 -33.96795 34952 ft 487 kts 30°
2026-04-30 11:24 1.03536 -33.93527 34952 ft 488 kts 30°
2026-04-30 11:25 1.12455 -33.88630 34953 ft 489 kts 29°
2026-04-30 11:26 1.24371 -33.82086 34952 ft 488 kts 30°
2026-04-30 11:26 1.30339 -33.78809 34952 ft 488 kts 30°
2026-04-30 11:27 1.36285 -33.75544 34948 ft 488 kts 30°
2026-04-30 11:27 1.42197 -33.72296 34949 ft 488 kts 30°
2026-04-30 11:28 1.51113 -33.67399 34951 ft 488 kts 30°
2026-04-30 11:29 1.57060 -33.64134 34949 ft 488 kts 30°
2026-04-30 11:29 1.65962 -33.59243 34949 ft 485 kts 30°
2026-04-30 11:30 1.74833 -33.54368 34952 ft 484 kts 30°
2026-04-30 11:31 1.80719 -33.51130 34950 ft 484 kts 30°
2026-04-30 11:31 1.86618 -33.47891 34950 ft 484 kts 30°
2026-04-30 11:32 1.92520 -33.44650 34953 ft 484 kts 29°
2026-04-30 11:32 1.98423 -33.41409 34948 ft 482 kts 30°
2026-04-30 11:33 2.07187 -33.36592 34952 ft 481 kts 30°
2026-04-30 11:33 2.13063 -33.33362 34952 ft 481 kts 30°
2026-04-30 11:34 2.18910 -33.30148 34954 ft 481 kts 30°
2026-04-30 11:34 2.24789 -33.26914 34955 ft 481 kts 30°
2026-04-30 11:35 2.30661 -33.23686 34955 ft 483 kts 30°
2026-04-30 11:35 2.36542 -33.20452 34955 ft 484 kts 30°
2026-04-30 11:36 2.42452 -33.17204 34954 ft 484 kts 30°
2026-04-30 11:36 2.48336 -33.13969 34954 ft 484 kts 30°
2026-04-30 11:37 2.54250 -33.10717 34954 ft 484 kts 30°
2026-04-30 11:37 2.60152 -33.07470 34956 ft 487 kts 29°
2026-04-30 11:38 2.66097 -33.04198 34953 ft 490 kts 30°
2026-04-30 11:38 2.72060 -33.00919 34956 ft 490 kts 29°
2026-04-30 11:39 2.78039 -32.97629 34956 ft 489 kts 29°
2026-04-30 11:39 2.84018 -32.94339 34955 ft 489 kts 30°
2026-04-30 11:40 2.89963 -32.91068 34954 ft 489 kts 29°
2026-04-30 11:40 2.95914 -32.87792 34954 ft 489 kts 30°
2026-04-30 11:41 3.01869 -32.84513 34953 ft 489 kts 30°
2026-04-30 11:41 3.07851 -32.81220 34954 ft 489 kts 29°
2026-04-30 11:42 3.13796 -32.77946 34955 ft 489 kts 29°
2026-04-30 11:42 3.19778 -32.74651 34958 ft 489 kts 29°
2026-04-30 11:43 3.25734 -32.71371 34954 ft 491 kts 29°
2026-04-30 11:43 3.31709 -32.68081 34953 ft 492 kts 29°
2026-04-30 11:44 3.37696 -32.64783 34951 ft 492 kts 29°
2026-04-30 11:44 3.43713 -32.61468 34954 ft 492 kts 29°
2026-04-30 11:45 3.49687 -32.58176 34953 ft 492 kts 29°
2026-04-30 11:45 3.55679 -32.54872 34955 ft 493 kts 29°
2026-04-30 11:46 3.61690 -32.51559 34953 ft 494 kts 29°
2026-04-30 11:46 3.67742 -32.48223 34954 ft 495 kts 29°
2026-04-30 11:47 3.73748 -32.44912 34957 ft 495 kts 29°
2026-04-30 11:47 3.79776 -32.41587 34954 ft 495 kts 29°
2026-04-30 11:48 3.85788 -32.38271 34957 ft 495 kts 29°
2026-04-30 11:48 3.91840 -32.34932 34953 ft 495 kts 28°
2026-04-30 11:49 3.97860 -32.31609 34954 ft 495 kts 28°
2026-04-30 11:49 4.03912 -32.28270 34958 ft 496 kts 28°
2026-04-30 11:50 4.09929 -32.24951 34958 ft 496 kts 28°
2026-04-30 11:50 4.15948 -32.21628 34958 ft 496 kts 28°
2026-04-30 11:51 4.22015 -32.18277 34957 ft 496 kts 28°
2026-04-30 11:51 4.28055 -32.14942 34958 ft 497 kts 28°
2026-04-30 11:52 4.34095 -32.11606 34957 ft 497 kts 28°
2026-04-30 11:52 4.40142 -32.08266 34957 ft 497 kts 28°
2026-04-30 11:53 4.46197 -32.04920 34958 ft 497 kts 28°
2026-04-30 11:53 4.52247 -32.01577 34958 ft 497 kts 28°
2026-04-30 11:54 4.58321 -31.98220 34958 ft 498 kts 28°
2026-04-30 11:54 4.64351 -31.94886 34960 ft 498 kts 27°
2026-04-30 11:55 4.70418 -31.91532 34960 ft 498 kts 27°
2026-04-30 11:55 4.76476 -31.88181 34961 ft 498 kts 27°
2026-04-30 11:56 4.82555 -31.84819 34960 ft 498 kts 27°
2026-04-30 11:56 4.87622 -31.82015 34959 ft 498 kts 27°
2026-04-30 11:57 4.93663 -31.78672 34962 ft 498 kts 27°
2026-04-30 11:57 4.99739 -31.75309 34960 ft 499 kts 28°
2026-04-30 11:58 5.05802 -31.71952 34961 ft 499 kts 28°
2026-04-30 11:58 5.11866 -31.68594 34960 ft 499 kts 27°
2026-04-30 11:59 5.17968 -31.65215 34960 ft 499 kts 27°
2026-04-30 11:59 5.24021 -31.61859 34963 ft 499 kts 28°
2026-04-30 12:00 5.30063 -31.58466 34966 ft 500 kts 28°
2026-04-30 12:00 5.36139 -31.55040 34966 ft 500 kts 28°
2026-04-30 12:01 5.42205 -31.51625 34964 ft 500 kts 28°
2026-04-30 12:01 5.48254 -31.48224 34966 ft 500 kts 28°
2026-04-30 12:02 5.54294 -31.44828 34966 ft 500 kts 28°
2026-04-30 12:02 5.60387 -31.41401 34965 ft 499 kts 28°
2026-04-30 12:03 5.69485 -31.36283 34966 ft 500 kts 28°
2026-04-30 12:04 5.75539 -31.32876 34964 ft 499 kts 28°
2026-04-30 12:04 5.81605 -31.29461 34965 ft 499 kts 28°
2026-04-30 12:05 5.87646 -31.26059 34970 ft 499 kts 28°
2026-04-30 12:05 5.93706 -31.22646 34969 ft 499 kts 28°
2026-04-30 12:06 5.99750 -31.19241 34972 ft 499 kts 28°
2026-04-30 12:06 6.05798 -31.15833 34972 ft 499 kts 28°
2026-04-30 12:07 6.11855 -31.12419 34967 ft 499 kts 28°
2026-04-30 12:07 6.17933 -31.08992 34968 ft 499 kts 28°
2026-04-30 12:08 6.23981 -31.05582 34971 ft 499 kts 28°
2026-04-30 12:08 6.30013 -31.02179 34974 ft 499 kts 28°
2026-04-30 12:09 6.36065 -30.98764 34976 ft 499 kts 28°
2026-04-30 12:09 6.42117 -30.95349 34976 ft 499 kts 28°
2026-04-30 12:10 6.48204 -30.91912 34976 ft 499 kts 28°
2026-04-30 12:10 6.54248 -30.88499 34976 ft 499 kts 28°
2026-04-30 12:11 6.60289 -30.85087 34976 ft 499 kts 28°
2026-04-30 12:11 6.66324 -30.81677 34980 ft 499 kts 28°
2026-04-30 12:12 6.72373 -30.78258 34979 ft 499 kts 28°
2026-04-30 12:12 6.78427 -30.74835 34977 ft 499 kts 28°
2026-04-30 12:13 6.84498 -30.71402 34978 ft 499 kts 28°
2026-04-30 12:13 6.90546 -30.67981 34979 ft 498 kts 28°
2026-04-30 12:14 6.96562 -30.64576 34979 ft 498 kts 28°
2026-04-30 12:14 7.02592 -30.61163 34982 ft 498 kts 28°
2026-04-30 12:15 7.08614 -30.57753 34985 ft 498 kts 28°
2026-04-30 12:15 7.14640 -30.54341 34986 ft 498 kts 28°
2026-04-30 12:16 7.20688 -30.50914 34986 ft 498 kts 28°
2026-04-30 12:16 7.26717 -30.47497 34985 ft 497 kts 28°
2026-04-30 12:17 7.35767 -30.42366 34988 ft 497 kts 28°
2026-04-30 12:17 7.41778 -30.38957 34988 ft 497 kts 28°
2026-04-30 12:18 7.47785 -30.35549 34985 ft 496 kts 28°
2026-04-30 12:18 7.53808 -30.32131 34985 ft 496 kts 28°
2026-04-30 12:19 7.59805 -30.28727 34985 ft 496 kts 28°
2026-04-30 12:19 7.65823 -30.25309 34991 ft 496 kts 28°
2026-04-30 12:20 7.71820 -30.21903 34991 ft 496 kts 28°
2026-04-30 12:20 7.77801 -30.18504 34990 ft 496 kts 28°
2026-04-30 12:21 7.83811 -30.15088 34990 ft 495 kts 28°
2026-04-30 12:21 7.89817 -30.11672 34993 ft 495 kts 28°
2026-04-30 12:22 7.95811 -30.08262 34990 ft 494 kts 28°
2026-04-30 12:22 8.01786 -30.04862 34993 ft 494 kts 28°
2026-04-30 12:23 8.07772 -30.01455 34994 ft 494 kts 28°
2026-04-30 12:23 8.13749 -29.98052 34993 ft 494 kts 28°
2026-04-30 12:24 8.19714 -29.94654 34996 ft 494 kts 28°
2026-04-30 12:24 8.25700 -29.91243 34996 ft 493 kts 28°
2026-04-30 12:25 8.31668 -29.87841 34993 ft 493 kts 28°
2026-04-30 12:25 8.37617 -29.84449 34993 ft 493 kts 28°
2026-04-30 12:26 8.43587 -29.81044 34999 ft 492 kts 28°
2026-04-30 12:26 8.49549 -29.77643 34999 ft 492 kts 28°
2026-04-30 12:27 8.55505 -29.74243 34996 ft 492 kts 28°
2026-04-30 12:27 8.61489 -29.70825 34996 ft 491 kts 28°
2026-04-30 12:28 8.67393 -29.67452 34996 ft 491 kts 28°
2026-04-30 12:28 8.73368 -29.64037 34999 ft 491 kts 28°
2026-04-30 12:29 8.79305 -29.60643 34999 ft 491 kts 28°
2026-04-30 12:29 8.85231 -29.57254 35002 ft 491 kts 28°
2026-04-30 12:30 8.91191 -29.53844 35004 ft 491 kts 28°
2026-04-30 12:30 8.97123 -29.50449 35001 ft 489 kts 28°
2026-04-30 12:31 9.03031 -29.47066 35004 ft 489 kts 28°
2026-04-30 12:31 9.08942 -29.43680 35004 ft 489 kts 28°
2026-04-30 12:32 9.14871 -29.40284 35004 ft 489 kts 28°
2026-04-30 12:32 9.20774 -29.36900 35005 ft 489 kts 28°
2026-04-30 12:33 9.26704 -29.33499 35007 ft 489 kts 27°
2026-04-30 12:33 9.32615 -29.30108 35004 ft 489 kts 28°
2026-04-30 12:34 9.38519 -29.26720 35008 ft 489 kts 28°
2026-04-30 12:34 9.44427 -29.23328 35008 ft 489 kts 28°
2026-04-30 12:35 9.50332 -29.19937 35007 ft 489 kts 28°
2026-04-30 12:35 9.56235 -29.16545 35011 ft 489 kts 28°
2026-04-30 12:36 9.62180 -29.13128 35011 ft 489 kts 28°
2026-04-30 12:36 9.68085 -29.09732 35006 ft 489 kts 28°
2026-04-30 12:37 9.73971 -29.06346 35010 ft 489 kts 27°
2026-04-30 12:37 9.79908 -29.02930 35006 ft 489 kts 28°
2026-04-30 12:38 9.85796 -28.99545 35011 ft 489 kts 28°
2026-04-30 12:38 9.91688 -28.96148 35012 ft 489 kts 28°
2026-04-30 12:39 9.97644 -28.92714 35014 ft 490 kts 28°
2026-04-30 12:39 10.03548 -28.89309 35011 ft 490 kts 28°
2026-04-30 12:40 10.09470 -28.85893 35014 ft 490 kts 28°
2026-04-30 12:40 10.15376 -28.82485 35013 ft 490 kts 28°
2026-04-30 12:41 10.21321 -28.79053 35019 ft 490 kts 28°
2026-04-30 12:41 10.27228 -28.75642 35024 ft 490 kts 28°
2026-04-30 12:42 10.33145 -28.72224 35015 ft 491 kts 28°
2026-04-30 12:42 10.39077 -28.68796 35016 ft 491 kts 28°
2026-04-30 12:43 10.45010 -28.65365 35021 ft 491 kts 28°
2026-04-30 12:43 10.50963 -28.61920 35020 ft 491 kts 28°
2026-04-30 12:44 10.56878 -28.58497 35024 ft 491 kts 28°
2026-04-30 12:44 10.62842 -28.55044 35019 ft 491 kts 28°
2026-04-30 12:45 10.68773 -28.51608 35022 ft 491 kts 28°
2026-04-30 12:45 10.74694 -28.48176 35020 ft 492 kts 28°
2026-04-30 12:46 10.80664 -28.44714 35023 ft 492 kts 28°
2026-04-30 12:46 10.86591 -28.41276 35018 ft 492 kts 28°
2026-04-30 12:47 10.92520 -28.37835 35030 ft 491 kts 28°
2026-04-30 12:47 10.98446 -28.34394 35029 ft 491 kts 28°
2026-04-30 12:48 11.04400 -28.30935 35026 ft 491 kts 28°
2026-04-30 12:48 11.10321 -28.27494 35026 ft 492 kts 28°
2026-04-30 12:49 11.16246 -28.24049 35026 ft 492 kts 28°
2026-04-30 12:49 11.22206 -28.20581 35028 ft 491 kts 28°
2026-04-30 12:50 11.28140 -28.17128 35029 ft 492 kts 28°
2026-04-30 12:50 11.34060 -28.13680 35029 ft 492 kts 28°
2026-04-30 12:51 11.40020 -28.10208 35028 ft 492 kts 28°
2026-04-30 12:51 11.45949 -28.06752 35030 ft 492 kts 28°
2026-04-30 12:52 11.51894 -28.03286 35031 ft 492 kts 28°
2026-04-30 12:52 11.57802 -27.99839 35034 ft 492 kts 28°
2026-04-30 12:53 11.63735 -27.96375 35034 ft 492 kts 28°
2026-04-30 12:53 11.69673 -27.92907 35034 ft 492 kts 28°
2026-04-30 12:54 11.75620 -27.89433 35034 ft 493 kts 28°
2026-04-30 12:54 11.81566 -27.85957 35035 ft 493 kts 28°
2026-04-30 12:55 11.86551 -27.83041 35034 ft 493 kts 28°
2026-04-30 12:55 11.93465 -27.78995 35034 ft 493 kts 28°
2026-04-30 12:56 11.98444 -27.76080 35034 ft 493 kts 28°
2026-04-30 12:56 12.04386 -27.72600 35039 ft 493 kts 28°
2026-04-30 12:57 12.10339 -27.69111 35036 ft 493 kts 28°
2026-04-30 12:57 12.16283 -27.65626 35039 ft 493 kts 28°
2026-04-30 12:58 12.22212 -27.62147 35036 ft 493 kts 28°
2026-04-30 12:58 12.28188 -27.58640 35041 ft 493 kts 28°
2026-04-30 12:59 12.34119 -27.55157 35039 ft 493 kts 28°
2026-04-30 12:59 12.40101 -27.51642 35038 ft 494 kts 28°
2026-04-30 13:00 12.46046 -27.48146 35046 ft 494 kts 28°
2026-04-30 13:00 12.51993 -27.44649 35046 ft 494 kts 28°
2026-04-30 13:01 12.57961 -27.41136 35044 ft 494 kts 28°
2026-04-30 13:01 12.63896 -27.37641 35040 ft 493 kts 28°
2026-04-30 13:02 12.69826 -27.34148 35050 ft 493 kts 28°
2026-04-30 13:02 12.75799 -27.30627 35046 ft 494 kts 28°
2026-04-30 13:03 12.81741 -27.27122 35046 ft 494 kts 28°
2026-04-30 13:03 12.87684 -27.23615 35044 ft 494 kts 28°
2026-04-30 13:04 12.93641 -27.20098 35045 ft 494 kts 28°
2026-04-30 13:04 12.99577 -27.16591 35049 ft 494 kts 28°
2026-04-30 13:05 13.05551 -27.13059 35049 ft 493 kts 28°
2026-04-30 13:06 13.14435 -27.07804 35045 ft 493 kts 28°
2026-04-30 13:06 13.20403 -27.04271 35045 ft 493 kts 28°
2026-04-30 13:07 13.26347 -27.00751 35046 ft 493 kts 28°
2026-04-30 13:07 13.32286 -26.97231 35045 ft 493 kts 28°
2026-04-30 13:08 13.38245 -26.93698 35050 ft 493 kts 28°
2026-04-30 13:08 13.44168 -26.90183 35048 ft 494 kts 28°
2026-04-30 13:09 13.50123 -26.86648 35049 ft 494 kts 28°
2026-04-30 13:09 13.56052 -26.83126 35053 ft 493 kts 28°
2026-04-30 13:10 13.61985 -26.79600 35052 ft 493 kts 28°
2026-04-30 13:10 13.67910 -26.76077 35049 ft 493 kts 28°
2026-04-30 13:11 13.73860 -26.72536 35056 ft 493 kts 28°
2026-04-30 13:11 13.79820 -26.68988 35055 ft 494 kts 28°
2026-04-30 13:12 13.85752 -26.65453 35046 ft 494 kts 28°
2026-04-30 13:12 13.91677 -26.61921 35060 ft 494 kts 28°
2026-04-30 13:13 14.00596 -26.56601 35059 ft 494 kts 28°
2026-04-30 13:14 14.09498 -26.51285 35051 ft 493 kts 28°
2026-04-30 13:14 14.18380 -26.45977 35049 ft 493 kts 28°
2026-04-30 13:15 14.27296 -26.40644 35068 ft 493 kts 28°
2026-04-30 13:16 14.33203 -26.37108 35068 ft 493 kts 28°
2026-04-30 13:16 14.39151 -26.33546 35068 ft 493 kts 28°
2026-04-30 13:17 14.48046 -26.28210 35059 ft 493 kts 28°
2026-04-30 13:18 14.56925 -26.22880 35060 ft 493 kts 27°
2026-04-30 13:18 14.65815 -26.17540 35063 ft 493 kts 27°
2026-04-30 13:19 14.71761 -26.13964 35067 ft 493 kts 27°
2026-04-30 13:19 14.77679 -26.10403 35067 ft 493 kts 27°
2026-04-30 13:20 14.83603 -26.06837 35061 ft 493 kts 27°
2026-04-30 13:20 14.89527 -26.03269 35067 ft 493 kts 27°
2026-04-30 13:21 14.95460 -25.99692 35067 ft 493 kts 27°
2026-04-30 13:22 15.04337 -25.94337 35067 ft 493 kts 27°
2026-04-30 13:22 15.13216 -25.88975 35070 ft 493 kts 27°
2026-04-30 13:23 15.22102 -25.83604 35067 ft 494 kts 27°
2026-04-30 13:24 15.33960 -25.76428 35067 ft 494 kts 27°
2026-04-30 13:25 15.45822 -25.69240 35077 ft 494 kts 27°
2026-04-30 13:26 15.60670 -25.60229 35067 ft 496 kts 27°
2026-04-30 13:28 15.75533 -25.51194 35070 ft 496 kts 27°
2026-04-30 13:28 15.84490 -25.45740 35073 ft 496 kts 27°
2026-04-30 13:29 15.96375 -25.38497 35072 ft 496 kts 27°
2026-04-30 13:31 16.11271 -25.29404 35069 ft 496 kts 27°
2026-04-30 13:32 16.26127 -25.20319 35068 ft 497 kts 27°
2026-04-30 13:33 16.38032 -25.13027 35061 ft 497 kts 27°
2026-04-30 13:34 16.46990 -25.07534 35061 ft 497 kts 27°
2026-04-30 13:35 16.58880 -25.00232 35068 ft 497 kts 27°
2026-04-30 13:36 16.70812 -24.92895 35068 ft 497 kts 27°
2026-04-30 13:36 16.79737 -24.87400 35074 ft 497 kts 27°
2026-04-30 13:37 16.88652 -24.81904 35063 ft 497 kts 26°
2026-04-30 13:38 16.97596 -24.76385 35082 ft 497 kts 26°
2026-04-30 13:39 17.09505 -24.69027 35090 ft 497 kts 26°
2026-04-30 13:40 17.18419 -24.63511 35096 ft 497 kts 26°
2026-04-30 13:40 17.24343 -24.59843 35090 ft 498 kts 26°
2026-04-30 13:41 17.30303 -24.56150 35090 ft 498 kts 26°
2026-04-30 13:41 17.36279 -24.52443 35087 ft 498 kts 26°
2026-04-30 13:42 17.42234 -24.48747 35086 ft 498 kts 26°
2026-04-30 13:42 17.51188 -24.43183 35092 ft 498 kts 26°
2026-04-30 13:43 17.57156 -24.39472 35092 ft 499 kts 26°
2026-04-30 13:43 17.63090 -24.35779 35090 ft 499 kts 26°
2026-04-30 13:44 17.69069 -24.32055 35100 ft 499 kts 26°
2026-04-30 13:44 17.75025 -24.28343 35093 ft 499 kts 26°
2026-04-30 13:45 17.83987 -24.22752 35085 ft 499 kts 26°
2026-04-30 13:46 17.89923 -24.19044 35088 ft 499 kts 26°
2026-04-30 13:46 17.95894 -24.15313 35090 ft 499 kts 26°
2026-04-30 13:47 18.01869 -24.11576 35092 ft 499 kts 26°
2026-04-30 13:47 18.06856 -24.08454 35095 ft 499 kts 26°
2026-04-30 13:48 18.12827 -24.04714 35095 ft 499 kts 25°
2026-04-30 13:48 18.18770 -24.00989 35095 ft 499 kts 25°
2026-04-30 13:49 18.24750 -23.97236 35093 ft 499 kts 25°
2026-04-30 13:49 18.30676 -23.93517 35094 ft 499 kts 25°
2026-04-30 13:50 18.36639 -23.89770 35099 ft 499 kts 25°
2026-04-30 13:50 18.45614 -23.84125 35097 ft 499 kts 25°
2026-04-30 13:51 18.51543 -23.80391 35097 ft 499 kts 25°
2026-04-30 13:51 18.57532 -23.76617 35099 ft 499 kts 25°
2026-04-30 13:52 18.63482 -23.72864 35100 ft 498 kts 25°
2026-04-30 13:52 18.69441 -23.69102 35099 ft 498 kts 25°
2026-04-30 13:53 18.75352 -23.65369 35097 ft 498 kts 25°
2026-04-30 13:53 18.81299 -23.61610 35097 ft 498 kts 25°
2026-04-30 13:54 18.87236 -23.57853 35100 ft 498 kts 25°
2026-04-30 13:54 18.93192 -23.54079 35105 ft 498 kts 25°
2026-04-30 13:55 18.99129 -23.50316 35100 ft 497 kts 25°
2026-04-30 13:55 19.05071 -23.46547 35103 ft 497 kts 25°
2026-04-30 13:56 19.10968 -23.42803 35105 ft 497 kts 25°
2026-04-30 13:56 19.16906 -23.39030 35101 ft 497 kts 24°
2026-04-30 13:57 19.22836 -23.35258 35100 ft 497 kts 24°
2026-04-30 13:57 19.28750 -23.31494 35103 ft 497 kts 24°
2026-04-30 13:58 19.37661 -23.25817 35102 ft 497 kts 24°
2026-04-30 13:59 19.43553 -23.22058 35101 ft 497 kts 24°
2026-04-30 13:59 19.49477 -23.18276 35102 ft 497 kts 24°
2026-04-30 14:00 19.55437 -23.14467 35103 ft 497 kts 24°
2026-04-30 14:00 19.64305 -23.08794 35108 ft 497 kts 24°
2026-04-30 14:01 19.70195 -23.05022 35105 ft 497 kts 24°
2026-04-30 14:01 19.76105 -23.01234 35108 ft 497 kts 24°
2026-04-30 14:02 19.82052 -22.97419 35105 ft 497 kts 24°
2026-04-30 14:02 19.87956 -22.93629 35108 ft 497 kts 24°
2026-04-30 14:03 19.93834 -22.89851 35110 ft 497 kts 25°
2026-04-30 14:03 19.99756 -22.86042 35110 ft 497 kts 25°
2026-04-30 14:04 20.05675 -22.82232 35108 ft 497 kts 25°
2026-04-30 14:04 20.11580 -22.78427 35108 ft 497 kts 25°
2026-04-30 14:05 20.17484 -22.74619 35110 ft 496 kts 25°
2026-04-30 14:05 20.23376 -22.70815 35113 ft 496 kts 25°
2026-04-30 14:06 20.32210 -22.65106 35114 ft 496 kts 24°
2026-04-30 14:07 20.41056 -22.59383 35110 ft 496 kts 24°
2026-04-30 14:08 20.49893 -22.53657 35111 ft 496 kts 24°
2026-04-30 14:08 20.58726 -22.47925 35116 ft 496 kts 24°
2026-04-30 14:09 20.64615 -22.44099 35117 ft 495 kts 24°
2026-04-30 14:10 20.73424 -22.38369 35114 ft 494 kts 24°
2026-04-30 14:10 20.79296 -22.34546 35116 ft 494 kts 24°
2026-04-30 14:11 20.85185 -22.30709 35115 ft 494 kts 24°
2026-04-30 14:11 20.91047 -22.26886 35112 ft 494 kts 24°
2026-04-30 14:12 20.96909 -22.23058 35118 ft 494 kts 24°
2026-04-30 14:12 21.02770 -22.19227 35100 ft 494 kts 24°
2026-04-30 14:13 21.08659 -22.15375 35116 ft 494 kts 24°
2026-04-30 14:13 21.14481 -22.11563 35117 ft 494 kts 24°
2026-04-30 14:14 21.20348 -22.07718 35116 ft 494 kts 24°
2026-04-30 14:14 21.26240 -22.03853 35115 ft 494 kts 24°
2026-04-30 14:15 21.32108 -22.00001 35111 ft 494 kts 24°
2026-04-30 14:15 21.37956 -21.96158 35113 ft 495 kts 24°
2026-04-30 14:16 21.43828 -21.92294 35111 ft 495 kts 24°
2026-04-30 14:16 21.49695 -21.88431 35118 ft 495 kts 24°
2026-04-30 14:17 21.55563 -21.84563 35110 ft 495 kts 24°
2026-04-30 14:17 21.61405 -21.80708 35133 ft 495 kts 24°
2026-04-30 14:18 21.67276 -21.76830 35114 ft 494 kts 24°
2026-04-30 14:18 21.76032 -21.71041 35113 ft 493 kts 24°
2026-04-30 14:19 21.84800 -21.65236 35110 ft 494 kts 24°
2026-04-30 14:20 21.90651 -21.61357 35110 ft 494 kts 24°
2026-04-30 14:20 21.99410 -21.55543 35115 ft 493 kts 24°
2026-04-30 14:21 22.05249 -21.51662 35110 ft 493 kts 24°
2026-04-30 14:22 22.14034 -21.45816 35115 ft 493 kts 24°
2026-04-30 14:22 22.22773 -21.39993 35109 ft 493 kts 24°
2026-04-30 14:23 22.34439 -21.32205 35113 ft 493 kts 24°
2026-04-30 14:24 22.43185 -21.26357 35108 ft 493 kts 24°
2026-04-30 14:25 22.54858 -21.18538 35116 ft 493 kts 24°
2026-04-30 14:26 22.63577 -21.12686 35118 ft 493 kts 24°
2026-04-30 14:27 22.72331 -21.06802 35111 ft 492 kts 24°
2026-04-30 14:27 22.78115 -21.02911 35111 ft 492 kts 24°
2026-04-30 14:28 22.86851 -20.97025 35113 ft 492 kts 24°
2026-04-30 14:28 22.92670 -20.93099 35114 ft 492 kts 24°
2026-04-30 14:29 23.03329 -20.85897 35106 ft 493 kts 24°
2026-04-30 14:31 23.18852 -20.75386 35118 ft 493 kts 24°
2026-04-30 14:31 23.27579 -20.69462 35111 ft 493 kts 24°
2026-04-30 14:32 23.35332 -20.64192 35121 ft 493 kts 24°
2026-04-30 14:33 23.41148 -20.60235 35115 ft 493 kts 24°
2026-04-30 14:33 23.49856 -20.54302 35111 ft 493 kts 24°
2026-04-30 14:34 23.55707 -20.50310 35111 ft 493 kts 24°
2026-04-30 14:34 23.61511 -20.46346 35138 ft 493 kts 24°
2026-04-30 14:35 23.70242 -20.40377 35110 ft 495 kts 24°
2026-04-30 14:36 23.76084 -20.36375 35113 ft 495 kts 24°
2026-04-30 14:36 23.81924 -20.32371 35110 ft 495 kts 24°
2026-04-30 14:37 23.87733 -20.28383 35111 ft 495 kts 24°
2026-04-30 14:37 23.93579 -20.24367 35111 ft 495 kts 24°
2026-04-30 14:38 23.99400 -20.20365 35117 ft 496 kts 25°
2026-04-30 14:38 24.05241 -20.16343 35113 ft 496 kts 25°
2026-04-30 14:39 24.11085 -20.12315 35113 ft 496 kts 25°
2026-04-30 14:39 24.16949 -20.08268 35113 ft 496 kts 25°
2026-04-30 14:40 24.25684 -20.02232 35110 ft 496 kts 25°
2026-04-30 14:40 24.31510 -19.98202 35112 ft 497 kts 25°
2026-04-30 14:41 24.37369 -19.94143 35111 ft 498 kts 25°
2026-04-30 14:41 24.43211 -19.90091 35111 ft 498 kts 25°
2026-04-30 14:42 24.49066 -19.86025 35110 ft 497 kts 25°
2026-04-30 14:42 24.54930 -19.81950 35110 ft 497 kts 25°
2026-04-30 14:43 24.60781 -19.77879 35127 ft 498 kts 26°
2026-04-30 14:43 24.66603 -19.73826 35110 ft 499 kts 26°
2026-04-30 14:44 24.72479 -19.69728 35113 ft 499 kts 26°
2026-04-30 14:44 24.78345 -19.65632 35112 ft 499 kts 26°
2026-04-30 14:45 24.84200 -19.61539 35110 ft 499 kts 26°
2026-04-30 14:45 24.90097 -19.57413 35109 ft 499 kts 26°
2026-04-30 14:46 24.95952 -19.53312 35115 ft 500 kts 26°
2026-04-30 14:46 25.01410 -19.48546 35112 ft 511 kts 41°
2026-04-30 14:47 25.06221 -19.42717 35109 ft 513 kts 44°
2026-04-30 14:47 25.10885 -19.36750 35109 ft 513 kts 45°
2026-04-30 14:48 25.15546 -19.30766 35107 ft 513 kts 45°
2026-04-30 14:48 25.20181 -19.24846 35109 ft 512 kts 45°
2026-04-30 14:49 25.24853 -19.18893 35106 ft 513 kts 45°
2026-04-30 14:49 25.29522 -19.12941 35121 ft 513 kts 45°
2026-04-30 14:50 25.36503 -19.04022 35107 ft 511 kts 45°
2026-04-30 14:51 25.43483 -18.95085 35112 ft 511 kts 45°
2026-04-30 14:52 25.50439 -18.86163 35114 ft 511 kts 45°
2026-04-30 14:52 25.57420 -18.77190 35109 ft 511 kts 45°
2026-04-30 14:53 25.64367 -18.68246 35131 ft 511 kts 45°
2026-04-30 14:54 25.73644 -18.56272 35110 ft 512 kts 46°
2026-04-30 14:55 25.80584 -18.47289 35110 ft 512 kts 46°
2026-04-30 14:56 25.89830 -18.35294 35110 ft 511 kts 46°
2026-04-30 14:57 25.96745 -18.26304 35113 ft 511 kts 46°
2026-04-30 14:58 26.05979 -18.14271 35114 ft 512 kts 46°
2026-04-30 14:58 26.12918 -18.05206 35114 ft 511 kts 46°
2026-04-30 15:00 26.24405 -17.90162 35115 ft 511 kts 46°
2026-04-30 15:01 26.33613 -17.78067 35111 ft 511 kts 46°
2026-04-30 15:01 26.40497 -17.69001 35112 ft 511 kts 46°
2026-04-30 15:02 26.45088 -17.62946 35110 ft 511 kts 46°
2026-04-30 15:03 26.56578 -17.47756 35111 ft 511 kts 46°
2026-04-30 15:04 26.68019 -17.32578 35107 ft 511 kts 46°
2026-04-30 15:06 26.79440 -17.17375 35108 ft 511 kts 46°
2026-04-30 15:07 26.88573 -17.05180 35106 ft 511 kts 46°
2026-04-30 15:08 26.97689 -16.92974 35100 ft 510 kts 46°
2026-04-30 15:09 27.09050 -16.77714 35102 ft 511 kts 46°
2026-04-30 15:10 27.18153 -16.65449 35102 ft 511 kts 45°
2026-04-30 15:11 27.31786 -16.47017 35099 ft 511 kts 46°
2026-04-30 15:13 27.43094 -16.31666 35097 ft 510 kts 45°
2026-04-30 15:14 27.58888 -16.10139 35097 ft 509 kts 45°
2026-04-30 15:17 27.79108 -15.82420 35097 ft 508 kts 45°
2026-04-30 15:19 27.97020 -15.57712 35100 ft 507 kts 45°
2026-04-30 17:39 43.04984 0.12491 40141 ft 522 kts 40°
2026-04-30 17:42 43.31564 0.46335 40118 ft 522 kts 40°
2026-04-30 17:43 43.44803 0.63354 40117 ft 521 kts 40°
2026-04-30 17:44 43.60651 0.83868 40112 ft 522 kts 40°
2026-04-30 17:47 43.84364 1.14855 40124 ft 521 kts 41°
2026-04-30 17:48 44.01830 1.37907 40114 ft 520 kts 41°
2026-04-30 17:50 44.22633 1.65625 40121 ft 517 kts 41°
2026-04-30 17:51 44.29729 1.76905 40129 ft 520 kts 59°
2026-04-30 17:52 44.33960 1.90900 40132 ft 522 kts 69°
2026-04-30 17:54 44.45281 2.33719 40181 ft 519 kts 69°
2026-04-30 17:56 44.55224 2.71619 40177 ft 519 kts 69°
2026-04-30 17:58 44.62597 3.00128 40181 ft 517 kts 69°
2026-04-30 18:00 44.72264 3.38040 40187 ft 516 kts 69°
2026-04-30 18:01 44.78908 3.61405 40189 ft 514 kts 60°
2026-04-30 18:02 44.89315 3.87827 40194 ft 513 kts 60°
2026-04-30 18:04 44.99625 4.14192 40206 ft 511 kts 60°
2026-04-30 18:06 45.13291 4.49541 40192 ft 511 kts 60°
2026-04-30 18:08 45.25120 4.80525 40176 ft 510 kts 60°
2026-04-30 18:10 45.38472 5.15915 40180 ft 509 kts 60°
2026-04-30 18:11 45.50798 5.46036 40182 ft 503 kts 43°
2026-04-30 18:13 45.63657 5.62776 40159 ft 500 kts 40°
2026-04-30 18:14 45.76590 5.79321 40152 ft 498 kts 40°
2026-04-30 18:15 45.91956 5.99141 40154 ft 487 kts 40°
2026-04-30 18:16 46.01952 6.12112 40158 ft 483 kts 41°
2026-04-30 18:17 46.06090 6.17502 40158 ft 482 kts 41°
2026-04-30 18:18 46.13968 6.27785 40180 ft 482 kts 41°
2026-04-30 18:18 46.18901 6.34255 40181 ft 482 kts 41°
2026-04-30 18:19 46.23851 6.40763 40189 ft 481 kts 41°
2026-04-30 18:19 46.28779 6.47257 40178 ft 477 kts 41°
2026-04-30 18:20 46.33690 6.53744 40177 ft 477 kts 41°
2026-04-30 18:20 46.36124 6.56965 40028 ft 470 kts 41°
2026-04-30 18:20 46.38515 6.60135 39688 ft 463 kts 41°
2026-04-30 18:20 46.40874 6.63265 39295 ft 458 kts 41°
2026-04-30 18:21 46.43204 6.66389 38795 ft 455 kts 43°
2026-04-30 18:21 46.45343 6.69765 38103 ft 454 kts 48°
2026-04-30 18:21 46.47379 6.73268 37384 ft 454 kts 49°
2026-04-30 18:21 46.49362 6.76770 36689 ft 454 kts 50°
2026-04-30 18:22 46.51347 6.80333 35980 ft 454 kts 51°
2026-04-30 18:22 46.55279 6.87447 34944 ft 447 kts 51°
2026-04-30 18:22 46.57218 6.90952 34428 ft 443 kts 50°
2026-04-30 18:23 46.59149 6.94431 33770 ft 442 kts 50°
2026-04-30 18:23 46.61079 6.97907 32938 ft 443 kts 51°
2026-04-30 18:23 46.63023 7.01407 32057 ft 447 kts 51°
2026-04-30 18:23 46.64988 7.04949 31170 ft 450 kts 51°
2026-04-30 18:24 46.68934 7.12077 29592 ft 451 kts 51°
2026-04-30 18:24 46.70892 7.15621 28984 ft 446 kts 51°
2026-04-30 18:24 46.72827 7.19129 28369 ft 442 kts 51°
2026-04-30 18:25 46.74741 7.22604 27758 ft 437 kts 51°
2026-04-30 18:25 46.78511 7.29451 26612 ft 429 kts 51°
2026-04-30 18:25 46.80344 7.32786 26019 ft 425 kts 51°
2026-04-30 18:26 46.84000 7.39466 24979 ft 416 kts 51°
2026-04-30 18:26 46.85800 7.42760 24412 ft 413 kts 51°
2026-04-30 18:26 46.87586 7.46029 23852 ft 410 kts 51°
2026-04-30 18:27 46.91104 7.52507 22526 ft 404 kts 51°
2026-04-30 18:27 46.92842 7.55716 21880 ft 401 kts 51°
2026-04-30 18:28 46.96262 7.62031 20762 ft 391 kts 51°
2026-04-30 18:28 46.97945 7.65144 20115 ft 389 kts 52°
2026-04-30 18:28 47.01279 7.71305 18950 ft 382 kts 52°
2026-04-30 18:29 47.02924 7.74352 18337 ft 380 kts 52°
2026-04-30 18:29 47.07432 7.82720 16637 ft 370 kts 52°
2026-04-30 18:30 47.10089 7.87660 15629 ft 365 kts 52°
2026-04-30 18:30 47.13533 7.94346 14884 ft 340 kts 59°
2026-04-30 18:31 47.14619 7.97386 14512 ft 333 kts 64°
2026-04-30 18:31 47.16588 8.03546 13435 ft 329 kts 65°
2026-04-30 18:32 47.18508 8.09581 12219 ft 329 kts 65°
2026-04-30 18:32 47.18665 8.10071 12118 ft 329 kts 65°
2026-04-30 18:32 47.20348 8.15374 11137 ft 327 kts 65°
2026-04-30 18:33 47.21385 8.18344 10555 ft 327 kts 58°
2026-04-30 18:33 47.24655 8.22834 9417 ft 324 kts 27°
2026-04-30 18:33 47.26763 8.23926 8873 ft 321 kts 12°
2026-04-30 18:34 47.28980 8.24151 8328 ft 319 kts 356°
2026-04-30 18:34 47.33092 8.22055 7262 ft 318 kts 326°
2026-04-30 18:34 47.34217 8.20679 7052 ft 317 kts 316°
2026-04-30 18:35 47.35604 8.18134 6972 ft 318 kts 305°
2026-04-30 18:35 47.36912 8.15494 6963 ft 319 kts 311°
2026-04-30 18:35 47.38529 8.13272 6966 ft 318 kts 326°
2026-04-30 18:36 47.42350 8.10192 6957 ft 306 kts 335°
2026-04-30 18:36 47.44248 8.08785 6969 ft 305 kts 334°
2026-04-30 18:36 47.48136 8.06341 6968 ft 302 kts 352°
2026-04-30 18:37 47.50204 8.06521 6973 ft 297 kts 19°
2026-04-30 18:37 47.51957 8.07941 6979 ft 286 kts 43°
2026-04-30 18:37 47.53110 8.10183 6972 ft 265 kts 65°
2026-04-30 18:37 47.53566 8.12715 6976 ft 251 kts 86°
2026-04-30 18:38 47.53385 8.15269 6976 ft 252 kts 105°
2026-04-30 18:38 47.52592 8.17571 6979 ft 254 kts 127°
2026-04-30 18:38 47.51275 8.19310 6979 ft 256 kts 148°
2026-04-30 18:38 47.49723 8.20580 6966 ft 254 kts 141°
2026-04-30 18:39 47.48645 8.22593 6974 ft 249 kts 114°
2026-04-30 18:39 47.48284 8.25053 6966 ft 247 kts 89°
2026-04-30 18:39 47.48681 8.27498 6971 ft 247 kts 64°
2026-04-30 18:39 47.49779 8.29441 6972 ft 250 kts 37°
2026-04-30 18:40 47.51404 8.30267 6975 ft 254 kts
2026-04-30 18:40 47.53086 8.29520 6980 ft 259 kts 327°
2026-04-30 18:40 47.54266 8.27497 6982 ft 263 kts 303°
2026-04-30 18:40 47.55272 8.25262 6780 ft 259 kts 308°
2026-04-30 18:41 47.56408 8.23224 6348 ft 260 kts 314°
2026-04-30 18:41 47.57624 8.21229 6028 ft 261 kts 314°
2026-04-30 18:41 47.58824 8.19298 5977 ft 248 kts 316°
2026-04-30 18:41 47.60111 8.17758 5977 ft 230 kts 336°
2026-04-30 18:42 47.61604 8.17101 5991 ft 222 kts 359°
2026-04-30 18:42 47.64384 8.18458 5989 ft 211 kts 44°
2026-04-30 18:42 47.65422 8.19976 5983 ft 209 kts 50°
2026-04-30 18:45 47.62042 8.34711 5168 ft 161 kts 133°
2026-04-30 18:45 47.61240 8.35812 4944 ft 153 kts 130°
2026-04-30 18:45 47.60475 8.36858 4718 ft 146 kts 128°
2026-04-30 18:46 47.59761 8.37839 4539 ft 138 kts 129°
2026-04-30 18:46 47.59070 8.38785 4344 ft 135 kts 132°
2026-04-30 18:46 47.58369 8.39744 4177 ft 139 kts 129°
2026-04-30 18:46 47.57653 8.40725 3977 ft 140 kts 129°
2026-04-30 18:47 47.56940 8.41701 3808 ft 139 kts 129°
2026-04-30 18:47 47.56239 8.42654 3614 ft 134 kts 129°
2026-04-30 18:47 47.55557 8.43587 3439 ft 132 kts 128°
2026-04-30 18:47 47.54896 8.44491 3262 ft 128 kts 128°
2026-04-30 18:48 47.54248 8.45378 3106 ft 127 kts 128°
2026-04-30 18:48 47.53596 8.46272 2904 ft 130 kts 128°
2026-04-30 18:48 47.52940 8.47166 2748 ft 127 kts 128°
2026-04-30 18:48 47.52290 8.48050 2563 ft 128 kts 128°
2026-04-30 18:49 47.51629 8.48958 2359 ft 135 kts 129°
2026-04-30 18:49 47.50919 8.49961 2144 ft 147 kts 131°
2026-04-30 18:49 47.50140 8.51022 1949 ft 157 kts 137°
2026-04-30 18:49 47.49336 8.52085 1718 ft 154 kts 134°
2026-04-30 18:50 47.48559 8.53115 1556 ft 145 kts 136°
2026-04-30 18:50 47.47846 8.54084 1442 ft 132 kts 134°
2026-04-30 18:50 47.47270 8.54890 1411 ft 117 kts 133°
2026-04-30 18:50 47.46895 8.55418 1405 ft 33 kts 139°
2026-04-30 18:51 47.46860 8.55464 1408 ft 10 kts 139°
2026-04-30 18:51 47.46672 8.55652 1410 ft 39 kts 160°
2026-04-30 18:51 47.46491 8.55712 1410 ft 0 kts 164°
2026-04-30 18:52 47.46455 8.55727 1410 ft 21 kts 164°
2026-04-30 18:52 47.46311 8.55849 1413 ft 24 kts 139°
2026-04-30 18:52 47.46262 8.55875 1416 ft 2 kts 206°
2026-04-30 18:53 47.46243 8.55857 1418 ft 3 kts 225°
2026-04-30 18:53 47.46237 8.55777 1411 ft 24 kts 269°
2026-04-30 18:53 47.46257 8.55495 1412 ft 27 kts 277°
2026-04-30 18:53 47.46271 8.55327 1405 ft 19 kts 276°
2026-04-30 18:54 47.46253 8.55202 1410 ft 6 kts 223°
2026-04-30 18:54 47.46220 8.55192 1405 ft 5 kts 186°
2026-04-30 18:54 47.46201 8.55190 1406 ft 0 kts 186°
2026-04-30 18:54 47.46200 8.55190 1406 ft 0 kts 186°